<?xml version="1.0" encoding="UTF-8" standalone="no" ?>
<gpx xmlns="http://www.topografix.com/GPX/1/1" xmlns:xsi="http://www.w3.org/2001/XMLSchema-instance" xsi:schemaLocation="http://www.topografix.com/GPX/1/1 http://www.topografix.com/GPX/1/1/gpx.xsd" version="1.1" creator="VisuGPX - https://www.visugpx.com">
  <metadata>
    <name>VTT Sud Bourgogne</name>
    <desc><![CDATA[Cluny - Tournus : circuits VTT XC]]></desc>
  </metadata>
  <trk>
    <name><![CDATA[5 LES_MONTS_DU_TOURNUGEOIS : ROUGE]]></name>
    <extensions>
      <line xmlns="http://www.topografix.com/GPX/gpx_style/0/2">
        <color>ff0000</color>
        <width>4</width>
      </line>
    </extensions>
    <trkseg>
      <trkpt lat="46.57057" lon="4.91205">
        <ele>173</ele>
        <time>2020-09-22T10:14:34Z</time>
      </trkpt>
      <trkpt lat="46.56791" lon="4.91122">
        <ele>173</ele>
        <time>2020-09-22T10:15:38Z</time>
      </trkpt>
      <trkpt lat="46.56698" lon="4.91107">
        <ele>173</ele>
        <time>2020-09-22T10:15:59Z</time>
      </trkpt>
      <trkpt lat="46.56693" lon="4.91104">
        <ele>174</ele>
        <time>2020-09-22T10:16:01Z</time>
      </trkpt>
      <trkpt lat="46.56687" lon="4.91087">
        <ele>175</ele>
        <time>2020-09-22T10:16:04Z</time>
      </trkpt>
      <trkpt lat="46.56655" lon="4.91105">
        <ele>175</ele>
        <time>2020-09-22T10:16:12Z</time>
      </trkpt>
      <trkpt lat="46.56582" lon="4.91123">
        <ele>176</ele>
        <time>2020-09-22T10:16:29Z</time>
      </trkpt>
      <trkpt lat="46.56544" lon="4.91139">
        <ele>177</ele>
        <time>2020-09-22T10:16:38Z</time>
      </trkpt>
      <trkpt lat="46.56469" lon="4.91181">
        <ele>178</ele>
        <time>2020-09-22T10:16:57Z</time>
      </trkpt>
      <trkpt lat="46.5644" lon="4.91191">
        <ele>178</ele>
        <time>2020-09-22T10:17:04Z</time>
      </trkpt>
      <trkpt lat="46.56399" lon="4.91211">
        <ele>178</ele>
        <time>2020-09-22T10:17:14Z</time>
      </trkpt>
      <trkpt lat="46.56332" lon="4.91249">
        <ele>179</ele>
        <time>2020-09-22T10:17:31Z</time>
      </trkpt>
      <trkpt lat="46.56299" lon="4.91273">
        <ele>179</ele>
        <time>2020-09-22T10:17:39Z</time>
      </trkpt>
      <trkpt lat="46.56164" lon="4.91384">
        <ele>178</ele>
        <time>2020-09-22T10:18:16Z</time>
      </trkpt>
      <trkpt lat="46.56017" lon="4.91537">
        <ele>174</ele>
        <time>2020-09-22T10:18:58Z</time>
      </trkpt>
      <trkpt lat="46.55925" lon="4.91602">
        <ele>175</ele>
        <time>2020-09-22T10:19:22Z</time>
      </trkpt>
      <trkpt lat="46.55731" lon="4.91718">
        <ele>171</ele>
        <time>2020-09-22T10:20:11Z</time>
      </trkpt>
      <trkpt lat="46.55673" lon="4.91741">
        <ele>174</ele>
        <time>2020-09-22T10:20:25Z</time>
      </trkpt>
      <trkpt lat="46.5559" lon="4.91761">
        <ele>174</ele>
        <time>2020-09-22T10:20:44Z</time>
      </trkpt>
      <trkpt lat="46.55537" lon="4.91591">
        <ele>175</ele>
        <time>2020-09-22T10:21:14Z</time>
      </trkpt>
      <trkpt lat="46.55523" lon="4.91585">
        <ele>175</ele>
        <time>2020-09-22T10:21:18Z</time>
      </trkpt>
      <trkpt lat="46.55489" lon="4.91587">
        <ele>174</ele>
        <time>2020-09-22T10:21:26Z</time>
      </trkpt>
      <trkpt lat="46.55464" lon="4.91593">
        <ele>174</ele>
        <time>2020-09-22T10:21:32Z</time>
      </trkpt>
      <trkpt lat="46.5543" lon="4.91605">
        <ele>175</ele>
        <time>2020-09-22T10:21:40Z</time>
      </trkpt>
      <trkpt lat="46.55411" lon="4.91613">
        <ele>175</ele>
        <time>2020-09-22T10:21:45Z</time>
      </trkpt>
      <trkpt lat="46.55391" lon="4.91625">
        <ele>176</ele>
        <time>2020-09-22T10:21:50Z</time>
      </trkpt>
      <trkpt lat="46.55384" lon="4.91619">
        <ele>176</ele>
        <time>2020-09-22T10:21:51Z</time>
      </trkpt>
      <trkpt lat="46.55377" lon="4.91619">
        <ele>176</ele>
        <time>2020-09-22T10:21:53Z</time>
      </trkpt>
      <trkpt lat="46.5533" lon="4.91633">
        <ele>177</ele>
        <time>2020-09-22T10:22:04Z</time>
      </trkpt>
      <trkpt lat="46.55318" lon="4.91634">
        <ele>178</ele>
        <time>2020-09-22T10:22:07Z</time>
      </trkpt>
      <trkpt lat="46.55295" lon="4.91629">
        <ele>179</ele>
        <time>2020-09-22T10:22:13Z</time>
      </trkpt>
      <trkpt lat="46.5527" lon="4.91618">
        <ele>181</ele>
        <time>2020-09-22T10:22:19Z</time>
      </trkpt>
      <trkpt lat="46.55244" lon="4.91597">
        <ele>183</ele>
        <time>2020-09-22T10:22:26Z</time>
      </trkpt>
      <trkpt lat="46.55253" lon="4.91574">
        <ele>183</ele>
        <time>2020-09-22T10:22:30Z</time>
      </trkpt>
      <trkpt lat="46.55254" lon="4.91557">
        <ele>182</ele>
        <time>2020-09-22T10:22:33Z</time>
      </trkpt>
      <trkpt lat="46.55252" lon="4.91549">
        <ele>182</ele>
        <time>2020-09-22T10:22:34Z</time>
      </trkpt>
      <trkpt lat="46.55225" lon="4.9152">
        <ele>183</ele>
        <time>2020-09-22T10:22:42Z</time>
      </trkpt>
      <trkpt lat="46.552" lon="4.915">
        <ele>185</ele>
        <time>2020-09-22T10:22:48Z</time>
      </trkpt>
      <trkpt lat="46.55193" lon="4.91484">
        <ele>185</ele>
        <time>2020-09-22T10:22:51Z</time>
      </trkpt>
      <trkpt lat="46.55192" lon="4.91473">
        <ele>185</ele>
        <time>2020-09-22T10:22:53Z</time>
      </trkpt>
      <trkpt lat="46.55196" lon="4.91428">
        <ele>185</ele>
        <time>2020-09-22T10:23:01Z</time>
      </trkpt>
      <trkpt lat="46.55217" lon="4.91334">
        <ele>184</ele>
        <time>2020-09-22T10:23:16Z</time>
      </trkpt>
      <trkpt lat="46.55233" lon="4.91237">
        <ele>188</ele>
        <time>2020-09-22T10:23:32Z</time>
      </trkpt>
      <trkpt lat="46.55232" lon="4.91207">
        <ele>188</ele>
        <time>2020-09-22T10:23:37Z</time>
      </trkpt>
      <trkpt lat="46.55224" lon="4.91185">
        <ele>189</ele>
        <time>2020-09-22T10:23:41Z</time>
      </trkpt>
      <trkpt lat="46.55223" lon="4.91163">
        <ele>190</ele>
        <time>2020-09-22T10:23:45Z</time>
      </trkpt>
      <trkpt lat="46.55234" lon="4.91014">
        <ele>191</ele>
        <time>2020-09-22T10:24:09Z</time>
      </trkpt>
      <trkpt lat="46.55255" lon="4.9093">
        <ele>192</ele>
        <time>2020-09-22T10:24:23Z</time>
      </trkpt>
      <trkpt lat="46.55317" lon="4.90739">
        <ele>188</ele>
        <time>2020-09-22T10:24:57Z</time>
      </trkpt>
      <trkpt lat="46.55425" lon="4.90738">
        <ele>185</ele>
        <time>2020-09-22T10:25:22Z</time>
      </trkpt>
      <trkpt lat="46.55467" lon="4.90734">
        <ele>185</ele>
        <time>2020-09-22T10:25:32Z</time>
      </trkpt>
      <trkpt lat="46.55565" lon="4.90718">
        <ele>189</ele>
        <time>2020-09-22T10:25:55Z</time>
      </trkpt>
      <trkpt lat="46.55554" lon="4.90753">
        <ele>188</ele>
        <time>2020-09-22T10:26:01Z</time>
      </trkpt>
      <trkpt lat="46.55545" lon="4.90768">
        <ele>188</ele>
        <time>2020-09-22T10:26:05Z</time>
      </trkpt>
      <trkpt lat="46.55525" lon="4.90816">
        <ele>188</ele>
        <time>2020-09-22T10:26:14Z</time>
      </trkpt>
      <trkpt lat="46.55492" lon="4.9096">
        <ele>187</ele>
        <time>2020-09-22T10:26:38Z</time>
      </trkpt>
      <trkpt lat="46.55487" lon="4.91006">
        <ele>187</ele>
        <time>2020-09-22T10:26:45Z</time>
      </trkpt>
      <trkpt lat="46.55479" lon="4.91147">
        <ele>186</ele>
        <time>2020-09-22T10:27:08Z</time>
      </trkpt>
      <trkpt lat="46.55482" lon="4.91238">
        <ele>185</ele>
        <time>2020-09-22T10:27:23Z</time>
      </trkpt>
      <trkpt lat="46.55485" lon="4.91244">
        <ele>185</ele>
        <time>2020-09-22T10:27:24Z</time>
      </trkpt>
      <trkpt lat="46.5549" lon="4.91245">
        <ele>186</ele>
        <time>2020-09-22T10:27:25Z</time>
      </trkpt>
      <trkpt lat="46.55635" lon="4.91238">
        <ele>186</ele>
        <time>2020-09-22T10:27:59Z</time>
      </trkpt>
      <trkpt lat="46.5566" lon="4.91234">
        <ele>185</ele>
        <time>2020-09-22T10:28:05Z</time>
      </trkpt>
      <trkpt lat="46.55724" lon="4.91177">
        <ele>185</ele>
        <time>2020-09-22T10:28:22Z</time>
      </trkpt>
      <trkpt lat="46.55749" lon="4.91121">
        <ele>186</ele>
        <time>2020-09-22T10:28:33Z</time>
      </trkpt>
      <trkpt lat="46.5575" lon="4.911">
        <ele>186</ele>
        <time>2020-09-22T10:28:37Z</time>
      </trkpt>
      <trkpt lat="46.55756" lon="4.91082">
        <ele>187</ele>
        <time>2020-09-22T10:28:40Z</time>
      </trkpt>
      <trkpt lat="46.5575" lon="4.91056">
        <ele>188</ele>
        <time>2020-09-22T10:28:44Z</time>
      </trkpt>
      <trkpt lat="46.55742" lon="4.90998">
        <ele>189</ele>
        <time>2020-09-22T10:28:54Z</time>
      </trkpt>
      <trkpt lat="46.55732" lon="4.90977">
        <ele>189</ele>
        <time>2020-09-22T10:28:58Z</time>
      </trkpt>
      <trkpt lat="46.55703" lon="4.90957">
        <ele>189</ele>
        <time>2020-09-22T10:29:05Z</time>
      </trkpt>
      <trkpt lat="46.55698" lon="4.9095">
        <ele>189</ele>
        <time>2020-09-22T10:29:07Z</time>
      </trkpt>
      <trkpt lat="46.55694" lon="4.90938">
        <ele>189</ele>
        <time>2020-09-22T10:29:09Z</time>
      </trkpt>
      <trkpt lat="46.55687" lon="4.90768">
        <ele>192</ele>
        <time>2020-09-22T10:29:36Z</time>
      </trkpt>
      <trkpt lat="46.55689" lon="4.90743">
        <ele>192</ele>
        <time>2020-09-22T10:29:40Z</time>
      </trkpt>
      <trkpt lat="46.55739" lon="4.90743">
        <ele>192</ele>
        <time>2020-09-22T10:29:52Z</time>
      </trkpt>
      <trkpt lat="46.55761" lon="4.9074">
        <ele>192</ele>
        <time>2020-09-22T10:29:57Z</time>
      </trkpt>
      <trkpt lat="46.55796" lon="4.90722">
        <ele>192</ele>
        <time>2020-09-22T10:30:06Z</time>
      </trkpt>
      <trkpt lat="46.55804" lon="4.90715">
        <ele>192</ele>
        <time>2020-09-22T10:30:08Z</time>
      </trkpt>
      <trkpt lat="46.55827" lon="4.90735">
        <ele>192</ele>
        <time>2020-09-22T10:30:14Z</time>
      </trkpt>
      <trkpt lat="46.55927" lon="4.908">
        <ele>191</ele>
        <time>2020-09-22T10:30:40Z</time>
      </trkpt>
      <trkpt lat="46.55974" lon="4.90821">
        <ele>191</ele>
        <time>2020-09-22T10:30:51Z</time>
      </trkpt>
      <trkpt lat="46.55996" lon="4.90834">
        <ele>191</ele>
        <time>2020-09-22T10:30:57Z</time>
      </trkpt>
      <trkpt lat="46.56011" lon="4.9084">
        <ele>191</ele>
        <time>2020-09-22T10:31:01Z</time>
      </trkpt>
      <trkpt lat="46.56023" lon="4.90841">
        <ele>191</ele>
        <time>2020-09-22T10:31:03Z</time>
      </trkpt>
      <trkpt lat="46.56034" lon="4.9071">
        <ele>194</ele>
        <time>2020-09-22T10:31:25Z</time>
      </trkpt>
      <trkpt lat="46.56036" lon="4.90613">
        <ele>196</ele>
        <time>2020-09-22T10:31:40Z</time>
      </trkpt>
      <trkpt lat="46.56034" lon="4.90576">
        <ele>196</ele>
        <time>2020-09-22T10:31:46Z</time>
      </trkpt>
      <trkpt lat="46.56008" lon="4.90378">
        <ele>199</ele>
        <time>2020-09-22T10:32:19Z</time>
      </trkpt>
      <trkpt lat="46.56019" lon="4.901">
        <ele>203</ele>
        <time>2020-09-22T10:33:03Z</time>
      </trkpt>
      <trkpt lat="46.56027" lon="4.89805">
        <ele>207</ele>
        <time>2020-09-22T10:33:51Z</time>
      </trkpt>
      <trkpt lat="46.56028" lon="4.89521">
        <ele>213</ele>
        <time>2020-09-22T10:34:36Z</time>
      </trkpt>
      <trkpt lat="46.56026" lon="4.89496">
        <ele>213</ele>
        <time>2020-09-22T10:34:40Z</time>
      </trkpt>
      <trkpt lat="46.56033" lon="4.89477">
        <ele>213</ele>
        <time>2020-09-22T10:34:44Z</time>
      </trkpt>
      <trkpt lat="46.56062" lon="4.89239">
        <ele>217</ele>
        <time>2020-09-22T10:35:23Z</time>
      </trkpt>
      <trkpt lat="46.56063" lon="4.89209">
        <ele>216</ele>
        <time>2020-09-22T10:35:27Z</time>
      </trkpt>
      <trkpt lat="46.56061" lon="4.89147">
        <ele>215</ele>
        <time>2020-09-22T10:35:37Z</time>
      </trkpt>
      <trkpt lat="46.56057" lon="4.89109">
        <ele>215</ele>
        <time>2020-09-22T10:35:44Z</time>
      </trkpt>
      <trkpt lat="46.56039" lon="4.89">
        <ele>216</ele>
        <time>2020-09-22T10:36:02Z</time>
      </trkpt>
      <trkpt lat="46.5604" lon="4.8893">
        <ele>211</ele>
        <time>2020-09-22T10:36:13Z</time>
      </trkpt>
      <trkpt lat="46.56025" lon="4.88748">
        <ele>209</ele>
        <time>2020-09-22T10:36:42Z</time>
      </trkpt>
      <trkpt lat="46.56026" lon="4.8871">
        <ele>208</ele>
        <time>2020-09-22T10:36:48Z</time>
      </trkpt>
      <trkpt lat="46.56032" lon="4.8866">
        <ele>208</ele>
        <time>2020-09-22T10:36:56Z</time>
      </trkpt>
      <trkpt lat="46.56043" lon="4.8862">
        <ele>208</ele>
        <time>2020-09-22T10:37:03Z</time>
      </trkpt>
      <trkpt lat="46.56036" lon="4.88613">
        <ele>208</ele>
        <time>2020-09-22T10:37:05Z</time>
      </trkpt>
      <trkpt lat="46.56008" lon="4.88601">
        <ele>209</ele>
        <time>2020-09-22T10:37:12Z</time>
      </trkpt>
      <trkpt lat="46.55963" lon="4.88612">
        <ele>212</ele>
        <time>2020-09-22T10:37:23Z</time>
      </trkpt>
      <trkpt lat="46.55918" lon="4.886">
        <ele>217</ele>
        <time>2020-09-22T10:37:34Z</time>
      </trkpt>
      <trkpt lat="46.559" lon="4.88601">
        <ele>220</ele>
        <time>2020-09-22T10:37:38Z</time>
      </trkpt>
      <trkpt lat="46.55861" lon="4.88621">
        <ele>226</ele>
        <time>2020-09-22T10:37:47Z</time>
      </trkpt>
      <trkpt lat="46.55828" lon="4.88633">
        <ele>232</ele>
        <time>2020-09-22T10:37:55Z</time>
      </trkpt>
      <trkpt lat="46.55815" lon="4.88648">
        <ele>235</ele>
        <time>2020-09-22T10:37:59Z</time>
      </trkpt>
      <trkpt lat="46.55807" lon="4.88671">
        <ele>237</ele>
        <time>2020-09-22T10:38:03Z</time>
      </trkpt>
      <trkpt lat="46.55802" lon="4.88679">
        <ele>238</ele>
        <time>2020-09-22T10:38:05Z</time>
      </trkpt>
      <trkpt lat="46.55766" lon="4.88572">
        <ele>246</ele>
        <time>2020-09-22T10:38:24Z</time>
      </trkpt>
      <trkpt lat="46.55726" lon="4.88473">
        <ele>251</ele>
        <time>2020-09-22T10:38:43Z</time>
      </trkpt>
      <trkpt lat="46.5571" lon="4.8844">
        <ele>253</ele>
        <time>2020-09-22T10:38:49Z</time>
      </trkpt>
      <trkpt lat="46.55624" lon="4.88287">
        <ele>257</ele>
        <time>2020-09-22T10:39:21Z</time>
      </trkpt>
      <trkpt lat="46.55571" lon="4.88203">
        <ele>260</ele>
        <time>2020-09-22T10:39:39Z</time>
      </trkpt>
      <trkpt lat="46.55536" lon="4.88157">
        <ele>261</ele>
        <time>2020-09-22T10:39:50Z</time>
      </trkpt>
      <trkpt lat="46.55504" lon="4.8809">
        <ele>259</ele>
        <time>2020-09-22T10:40:03Z</time>
      </trkpt>
      <trkpt lat="46.55495" lon="4.88066">
        <ele>258</ele>
        <time>2020-09-22T10:40:08Z</time>
      </trkpt>
      <trkpt lat="46.55482" lon="4.88041">
        <ele>256</ele>
        <time>2020-09-22T10:40:13Z</time>
      </trkpt>
      <trkpt lat="46.55463" lon="4.88015">
        <ele>254</ele>
        <time>2020-09-22T10:40:19Z</time>
      </trkpt>
      <trkpt lat="46.55451" lon="4.88006">
        <ele>254</ele>
        <time>2020-09-22T10:40:22Z</time>
      </trkpt>
      <trkpt lat="46.554" lon="4.87984">
        <ele>254</ele>
        <time>2020-09-22T10:40:34Z</time>
      </trkpt>
      <trkpt lat="46.55377" lon="4.87964">
        <ele>253</ele>
        <time>2020-09-22T10:40:41Z</time>
      </trkpt>
      <trkpt lat="46.55354" lon="4.87938">
        <ele>253</ele>
        <time>2020-09-22T10:40:47Z</time>
      </trkpt>
      <trkpt lat="46.55346" lon="4.87945">
        <ele>253</ele>
        <time>2020-09-22T10:40:50Z</time>
      </trkpt>
      <trkpt lat="46.55336" lon="4.87949">
        <ele>253</ele>
        <time>2020-09-22T10:40:52Z</time>
      </trkpt>
      <trkpt lat="46.55314" lon="4.87954">
        <ele>254</ele>
        <time>2020-09-22T10:40:57Z</time>
      </trkpt>
      <trkpt lat="46.55293" lon="4.87955">
        <ele>255</ele>
        <time>2020-09-22T10:41:02Z</time>
      </trkpt>
      <trkpt lat="46.55263" lon="4.87948">
        <ele>255</ele>
        <time>2020-09-22T10:41:09Z</time>
      </trkpt>
      <trkpt lat="46.55217" lon="4.87919">
        <ele>257</ele>
        <time>2020-09-22T10:41:21Z</time>
      </trkpt>
      <trkpt lat="46.5521" lon="4.87906">
        <ele>257</ele>
        <time>2020-09-22T10:41:24Z</time>
      </trkpt>
      <trkpt lat="46.55192" lon="4.87895">
        <ele>259</ele>
        <time>2020-09-22T10:41:28Z</time>
      </trkpt>
      <trkpt lat="46.55174" lon="4.87879">
        <ele>260</ele>
        <time>2020-09-22T10:41:33Z</time>
      </trkpt>
      <trkpt lat="46.55114" lon="4.87818">
        <ele>263</ele>
        <time>2020-09-22T10:41:50Z</time>
      </trkpt>
      <trkpt lat="46.54991" lon="4.87706">
        <ele>276</ele>
        <time>2020-09-22T10:42:24Z</time>
      </trkpt>
      <trkpt lat="46.54895" lon="4.87635">
        <ele>283</ele>
        <time>2020-09-22T10:42:49Z</time>
      </trkpt>
      <trkpt lat="46.54924" lon="4.87636">
        <ele>284</ele>
        <time>2020-09-22T10:42:56Z</time>
      </trkpt>
      <trkpt lat="46.54968" lon="4.87631">
        <ele>283</ele>
        <time>2020-09-22T10:43:06Z</time>
      </trkpt>
      <trkpt lat="46.5498" lon="4.87626">
        <ele>283</ele>
        <time>2020-09-22T10:43:09Z</time>
      </trkpt>
      <trkpt lat="46.54985" lon="4.87612">
        <ele>284</ele>
        <time>2020-09-22T10:43:12Z</time>
      </trkpt>
      <trkpt lat="46.54984" lon="4.87597">
        <ele>285</ele>
        <time>2020-09-22T10:43:14Z</time>
      </trkpt>
      <trkpt lat="46.54971" lon="4.87578">
        <ele>288</ele>
        <time>2020-09-22T10:43:19Z</time>
      </trkpt>
      <trkpt lat="46.54954" lon="4.87559">
        <ele>291</ele>
        <time>2020-09-22T10:43:24Z</time>
      </trkpt>
      <trkpt lat="46.54941" lon="4.87526">
        <ele>295</ele>
        <time>2020-09-22T10:43:30Z</time>
      </trkpt>
      <trkpt lat="46.54895" lon="4.87464">
        <ele>305</ele>
        <time>2020-09-22T10:43:44Z</time>
      </trkpt>
      <trkpt lat="46.54867" lon="4.87413">
        <ele>314</ele>
        <time>2020-09-22T10:43:55Z</time>
      </trkpt>
      <trkpt lat="46.5488" lon="4.87391">
        <ele>314</ele>
        <time>2020-09-22T10:43:59Z</time>
      </trkpt>
      <trkpt lat="46.54923" lon="4.87283">
        <ele>313</ele>
        <time>2020-09-22T10:44:19Z</time>
      </trkpt>
      <trkpt lat="46.54932" lon="4.87265">
        <ele>313</ele>
        <time>2020-09-22T10:44:23Z</time>
      </trkpt>
      <trkpt lat="46.54937" lon="4.8726">
        <ele>312</ele>
        <time>2020-09-22T10:44:24Z</time>
      </trkpt>
      <trkpt lat="46.54944" lon="4.87258">
        <ele>312</ele>
        <time>2020-09-22T10:44:26Z</time>
      </trkpt>
      <trkpt lat="46.54963" lon="4.8726">
        <ele>310</ele>
        <time>2020-09-22T10:44:31Z</time>
      </trkpt>
      <trkpt lat="46.54972" lon="4.87267">
        <ele>309</ele>
        <time>2020-09-22T10:44:33Z</time>
      </trkpt>
      <trkpt lat="46.54976" lon="4.87289">
        <ele>308</ele>
        <time>2020-09-22T10:44:37Z</time>
      </trkpt>
      <trkpt lat="46.54984" lon="4.87307">
        <ele>306</ele>
        <time>2020-09-22T10:44:40Z</time>
      </trkpt>
      <trkpt lat="46.54993" lon="4.87311">
        <ele>305</ele>
        <time>2020-09-22T10:44:42Z</time>
      </trkpt>
      <trkpt lat="46.54999" lon="4.87281">
        <ele>305</ele>
        <time>2020-09-22T10:44:47Z</time>
      </trkpt>
      <trkpt lat="46.55022" lon="4.87232">
        <ele>307</ele>
        <time>2020-09-22T10:44:57Z</time>
      </trkpt>
      <trkpt lat="46.55062" lon="4.87157">
        <ele>305</ele>
        <time>2020-09-22T10:45:12Z</time>
      </trkpt>
      <trkpt lat="46.55096" lon="4.87111">
        <ele>304</ele>
        <time>2020-09-22T10:45:23Z</time>
      </trkpt>
      <trkpt lat="46.5515" lon="4.87048">
        <ele>300</ele>
        <time>2020-09-22T10:45:39Z</time>
      </trkpt>
      <trkpt lat="46.55166" lon="4.87019">
        <ele>298</ele>
        <time>2020-09-22T10:45:45Z</time>
      </trkpt>
      <trkpt lat="46.55179" lon="4.86988">
        <ele>298</ele>
        <time>2020-09-22T10:45:51Z</time>
      </trkpt>
      <trkpt lat="46.55185" lon="4.86967">
        <ele>299</ele>
        <time>2020-09-22T10:45:54Z</time>
      </trkpt>
      <trkpt lat="46.55207" lon="4.86848">
        <ele>297</ele>
        <time>2020-09-22T10:46:14Z</time>
      </trkpt>
      <trkpt lat="46.55231" lon="4.86767">
        <ele>289</ele>
        <time>2020-09-22T10:46:28Z</time>
      </trkpt>
      <trkpt lat="46.55234" lon="4.86735">
        <ele>286</ele>
        <time>2020-09-22T10:46:34Z</time>
      </trkpt>
      <trkpt lat="46.55229" lon="4.8667">
        <ele>281</ele>
        <time>2020-09-22T10:46:44Z</time>
      </trkpt>
      <trkpt lat="46.55205" lon="4.8658">
        <ele>275</ele>
        <time>2020-09-22T10:47:00Z</time>
      </trkpt>
      <trkpt lat="46.55163" lon="4.86475">
        <ele>273</ele>
        <time>2020-09-22T10:47:19Z</time>
      </trkpt>
      <trkpt lat="46.5513" lon="4.86409">
        <ele>271</ele>
        <time>2020-09-22T10:47:32Z</time>
      </trkpt>
      <trkpt lat="46.55101" lon="4.86339">
        <ele>268</ele>
        <time>2020-09-22T10:47:45Z</time>
      </trkpt>
      <trkpt lat="46.55076" lon="4.86274">
        <ele>267</ele>
        <time>2020-09-22T10:47:57Z</time>
      </trkpt>
      <trkpt lat="46.55073" lon="4.86257">
        <ele>266</ele>
        <time>2020-09-22T10:48:00Z</time>
      </trkpt>
      <trkpt lat="46.55059" lon="4.86224">
        <ele>264</ele>
        <time>2020-09-22T10:48:06Z</time>
      </trkpt>
      <trkpt lat="46.55036" lon="4.86154">
        <ele>259</ele>
        <time>2020-09-22T10:48:19Z</time>
      </trkpt>
      <trkpt lat="46.55031" lon="4.86094">
        <ele>255</ele>
        <time>2020-09-22T10:48:29Z</time>
      </trkpt>
      <trkpt lat="46.55037" lon="4.85998">
        <ele>252</ele>
        <time>2020-09-22T10:48:44Z</time>
      </trkpt>
      <trkpt lat="46.55033" lon="4.85949">
        <ele>251</ele>
        <time>2020-09-22T10:48:52Z</time>
      </trkpt>
      <trkpt lat="46.55028" lon="4.85918">
        <ele>251</ele>
        <time>2020-09-22T10:48:57Z</time>
      </trkpt>
      <trkpt lat="46.55014" lon="4.85886">
        <ele>251</ele>
        <time>2020-09-22T10:49:03Z</time>
      </trkpt>
      <trkpt lat="46.55001" lon="4.85872">
        <ele>252</ele>
        <time>2020-09-22T10:49:07Z</time>
      </trkpt>
      <trkpt lat="46.54977" lon="4.85851">
        <ele>252</ele>
        <time>2020-09-22T10:49:13Z</time>
      </trkpt>
      <trkpt lat="46.54938" lon="4.85823">
        <ele>252</ele>
        <time>2020-09-22T10:49:24Z</time>
      </trkpt>
      <trkpt lat="46.54905" lon="4.85794">
        <ele>251</ele>
        <time>2020-09-22T10:49:33Z</time>
      </trkpt>
      <trkpt lat="46.54899" lon="4.85787">
        <ele>251</ele>
        <time>2020-09-22T10:49:34Z</time>
      </trkpt>
      <trkpt lat="46.54899" lon="4.85782">
        <ele>251</ele>
        <time>2020-09-22T10:49:35Z</time>
      </trkpt>
      <trkpt lat="46.54974" lon="4.85722">
        <ele>247</ele>
        <time>2020-09-22T10:49:55Z</time>
      </trkpt>
      <trkpt lat="46.5498" lon="4.85718">
        <ele>247</ele>
        <time>2020-09-22T10:49:57Z</time>
      </trkpt>
      <trkpt lat="46.54997" lon="4.85715">
        <ele>247</ele>
        <time>2020-09-22T10:50:01Z</time>
      </trkpt>
      <trkpt lat="46.55018" lon="4.85722">
        <ele>246</ele>
        <time>2020-09-22T10:50:06Z</time>
      </trkpt>
      <trkpt lat="46.55106" lon="4.85773">
        <ele>244</ele>
        <time>2020-09-22T10:50:28Z</time>
      </trkpt>
      <trkpt lat="46.55123" lon="4.85742">
        <ele>242</ele>
        <time>2020-09-22T10:50:34Z</time>
      </trkpt>
      <trkpt lat="46.55174" lon="4.85601">
        <ele>237</ele>
        <time>2020-09-22T10:51:00Z</time>
      </trkpt>
      <trkpt lat="46.55215" lon="4.85479">
        <ele>230</ele>
        <time>2020-09-22T10:51:22Z</time>
      </trkpt>
      <trkpt lat="46.55214" lon="4.85411">
        <ele>229</ele>
        <time>2020-09-22T10:51:33Z</time>
      </trkpt>
      <trkpt lat="46.55221" lon="4.85363">
        <ele>229</ele>
        <time>2020-09-22T10:51:40Z</time>
      </trkpt>
      <trkpt lat="46.55227" lon="4.85343">
        <ele>229</ele>
        <time>2020-09-22T10:51:44Z</time>
      </trkpt>
      <trkpt lat="46.55246" lon="4.85314">
        <ele>231</ele>
        <time>2020-09-22T10:51:50Z</time>
      </trkpt>
      <trkpt lat="46.5523" lon="4.85302">
        <ele>231</ele>
        <time>2020-09-22T10:51:55Z</time>
      </trkpt>
      <trkpt lat="46.55143" lon="4.85277">
        <ele>229</ele>
        <time>2020-09-22T10:52:15Z</time>
      </trkpt>
      <trkpt lat="46.55086" lon="4.85255">
        <ele>229</ele>
        <time>2020-09-22T10:52:29Z</time>
      </trkpt>
      <trkpt lat="46.54996" lon="4.85208">
        <ele>230</ele>
        <time>2020-09-22T10:52:51Z</time>
      </trkpt>
      <trkpt lat="46.54975" lon="4.85201">
        <ele>230</ele>
        <time>2020-09-22T10:52:56Z</time>
      </trkpt>
      <trkpt lat="46.54956" lon="4.85197">
        <ele>231</ele>
        <time>2020-09-22T10:53:01Z</time>
      </trkpt>
      <trkpt lat="46.54927" lon="4.85198">
        <ele>231</ele>
        <time>2020-09-22T10:53:08Z</time>
      </trkpt>
      <trkpt lat="46.54885" lon="4.8521">
        <ele>231</ele>
        <time>2020-09-22T10:53:18Z</time>
      </trkpt>
      <trkpt lat="46.5486" lon="4.8521">
        <ele>232</ele>
        <time>2020-09-22T10:53:24Z</time>
      </trkpt>
      <trkpt lat="46.54844" lon="4.85207">
        <ele>232</ele>
        <time>2020-09-22T10:53:27Z</time>
      </trkpt>
      <trkpt lat="46.54832" lon="4.85202">
        <ele>233</ele>
        <time>2020-09-22T10:53:30Z</time>
      </trkpt>
      <trkpt lat="46.54812" lon="4.85188">
        <ele>232</ele>
        <time>2020-09-22T10:53:35Z</time>
      </trkpt>
      <trkpt lat="46.54819" lon="4.85176">
        <ele>233</ele>
        <time>2020-09-22T10:53:38Z</time>
      </trkpt>
      <trkpt lat="46.54833" lon="4.85163">
        <ele>235</ele>
        <time>2020-09-22T10:53:42Z</time>
      </trkpt>
      <trkpt lat="46.5487" lon="4.85153">
        <ele>236</ele>
        <time>2020-09-22T10:53:51Z</time>
      </trkpt>
      <trkpt lat="46.54897" lon="4.85139">
        <ele>237</ele>
        <time>2020-09-22T10:53:57Z</time>
      </trkpt>
      <trkpt lat="46.54963" lon="4.85073">
        <ele>244</ele>
        <time>2020-09-22T10:54:16Z</time>
      </trkpt>
      <trkpt lat="46.55037" lon="4.85014">
        <ele>249</ele>
        <time>2020-09-22T10:54:36Z</time>
      </trkpt>
      <trkpt lat="46.54965" lon="4.84982">
        <ele>257</ele>
        <time>2020-09-22T10:54:53Z</time>
      </trkpt>
      <trkpt lat="46.54923" lon="4.84949">
        <ele>265</ele>
        <time>2020-09-22T10:55:04Z</time>
      </trkpt>
      <trkpt lat="46.54865" lon="4.8492">
        <ele>271</ele>
        <time>2020-09-22T10:55:19Z</time>
      </trkpt>
      <trkpt lat="46.54812" lon="4.84874">
        <ele>280</ele>
        <time>2020-09-22T10:55:33Z</time>
      </trkpt>
      <trkpt lat="46.54704" lon="4.84761">
        <ele>288</ele>
        <time>2020-09-22T10:56:04Z</time>
      </trkpt>
      <trkpt lat="46.54651" lon="4.84701">
        <ele>288</ele>
        <time>2020-09-22T10:56:20Z</time>
      </trkpt>
      <trkpt lat="46.54588" lon="4.8464">
        <ele>282</ele>
        <time>2020-09-22T10:56:38Z</time>
      </trkpt>
      <trkpt lat="46.54546" lon="4.84613">
        <ele>274</ele>
        <time>2020-09-22T10:56:48Z</time>
      </trkpt>
      <trkpt lat="46.54515" lon="4.84581">
        <ele>269</ele>
        <time>2020-09-22T10:56:57Z</time>
      </trkpt>
      <trkpt lat="46.54487" lon="4.84546">
        <ele>261</ele>
        <time>2020-09-22T10:57:06Z</time>
      </trkpt>
      <trkpt lat="46.54475" lon="4.84536">
        <ele>258</ele>
        <time>2020-09-22T10:57:09Z</time>
      </trkpt>
      <trkpt lat="46.5449" lon="4.84511">
        <ele>260</ele>
        <time>2020-09-22T10:57:14Z</time>
      </trkpt>
      <trkpt lat="46.54506" lon="4.8449">
        <ele>262</ele>
        <time>2020-09-22T10:57:19Z</time>
      </trkpt>
      <trkpt lat="46.54529" lon="4.84445">
        <ele>264</ele>
        <time>2020-09-22T10:57:28Z</time>
      </trkpt>
      <trkpt lat="46.54553" lon="4.84405">
        <ele>267</ele>
        <time>2020-09-22T10:57:37Z</time>
      </trkpt>
      <trkpt lat="46.54555" lon="4.84346">
        <ele>257</ele>
        <time>2020-09-22T10:57:46Z</time>
      </trkpt>
      <trkpt lat="46.54547" lon="4.84314">
        <ele>251</ele>
        <time>2020-09-22T10:57:52Z</time>
      </trkpt>
      <trkpt lat="46.54547" lon="4.84267">
        <ele>248</ele>
        <time>2020-09-22T10:57:59Z</time>
      </trkpt>
      <trkpt lat="46.54535" lon="4.84252">
        <ele>244</ele>
        <time>2020-09-22T10:58:03Z</time>
      </trkpt>
      <trkpt lat="46.5455" lon="4.84187">
        <ele>246</ele>
        <time>2020-09-22T10:58:14Z</time>
      </trkpt>
      <trkpt lat="46.54557" lon="4.84168">
        <ele>247</ele>
        <time>2020-09-22T10:58:18Z</time>
      </trkpt>
      <trkpt lat="46.54566" lon="4.84153">
        <ele>248</ele>
        <time>2020-09-22T10:58:21Z</time>
      </trkpt>
      <trkpt lat="46.5459" lon="4.84135">
        <ele>252</ele>
        <time>2020-09-22T10:58:27Z</time>
      </trkpt>
      <trkpt lat="46.5462" lon="4.84125">
        <ele>254</ele>
        <time>2020-09-22T10:58:34Z</time>
      </trkpt>
      <trkpt lat="46.54657" lon="4.84119">
        <ele>257</ele>
        <time>2020-09-22T10:58:43Z</time>
      </trkpt>
      <trkpt lat="46.54683" lon="4.841">
        <ele>257</ele>
        <time>2020-09-22T10:58:50Z</time>
      </trkpt>
      <trkpt lat="46.54697" lon="4.84085">
        <ele>257</ele>
        <time>2020-09-22T10:58:54Z</time>
      </trkpt>
      <trkpt lat="46.54709" lon="4.84067">
        <ele>258</ele>
        <time>2020-09-22T10:58:58Z</time>
      </trkpt>
      <trkpt lat="46.54715" lon="4.84042">
        <ele>259</ele>
        <time>2020-09-22T10:59:02Z</time>
      </trkpt>
      <trkpt lat="46.54719" lon="4.84034">
        <ele>259</ele>
        <time>2020-09-22T10:59:04Z</time>
      </trkpt>
      <trkpt lat="46.54726" lon="4.84034">
        <ele>259</ele>
        <time>2020-09-22T10:59:05Z</time>
      </trkpt>
      <trkpt lat="46.54751" lon="4.84054">
        <ele>258</ele>
        <time>2020-09-22T10:59:12Z</time>
      </trkpt>
      <trkpt lat="46.54754" lon="4.84054">
        <ele>259</ele>
        <time>2020-09-22T10:59:13Z</time>
      </trkpt>
      <trkpt lat="46.54775" lon="4.84038">
        <ele>262</ele>
        <time>2020-09-22T10:59:18Z</time>
      </trkpt>
      <trkpt lat="46.54794" lon="4.84027">
        <ele>265</ele>
        <time>2020-09-22T10:59:23Z</time>
      </trkpt>
      <trkpt lat="46.54837" lon="4.84007">
        <ele>271</ele>
        <time>2020-09-22T10:59:34Z</time>
      </trkpt>
      <trkpt lat="46.5485" lon="4.83993">
        <ele>273</ele>
        <time>2020-09-22T10:59:37Z</time>
      </trkpt>
      <trkpt lat="46.54871" lon="4.8398">
        <ele>276</ele>
        <time>2020-09-22T10:59:43Z</time>
      </trkpt>
      <trkpt lat="46.54888" lon="4.83961">
        <ele>278</ele>
        <time>2020-09-22T10:59:48Z</time>
      </trkpt>
      <trkpt lat="46.54897" lon="4.83899">
        <ele>281</ele>
        <time>2020-09-22T10:59:58Z</time>
      </trkpt>
      <trkpt lat="46.54898" lon="4.83877">
        <ele>281</ele>
        <time>2020-09-22T11:00:01Z</time>
      </trkpt>
      <trkpt lat="46.54897" lon="4.83857">
        <ele>281</ele>
        <time>2020-09-22T11:00:05Z</time>
      </trkpt>
      <trkpt lat="46.54872" lon="4.83799">
        <ele>280</ele>
        <time>2020-09-22T11:00:16Z</time>
      </trkpt>
      <trkpt lat="46.54848" lon="4.83728">
        <ele>280</ele>
        <time>2020-09-22T11:00:28Z</time>
      </trkpt>
      <trkpt lat="46.54803" lon="4.83711">
        <ele>277</ele>
        <time>2020-09-22T11:00:39Z</time>
      </trkpt>
      <trkpt lat="46.54737" lon="4.83699">
        <ele>273</ele>
        <time>2020-09-22T11:00:55Z</time>
      </trkpt>
      <trkpt lat="46.54728" lon="4.837">
        <ele>274</ele>
        <time>2020-09-22T11:00:57Z</time>
      </trkpt>
      <trkpt lat="46.54706" lon="4.83718">
        <ele>274</ele>
        <time>2020-09-22T11:01:03Z</time>
      </trkpt>
      <trkpt lat="46.54663" lon="4.83767">
        <ele>274</ele>
        <time>2020-09-22T11:01:16Z</time>
      </trkpt>
      <trkpt lat="46.54638" lon="4.8377">
        <ele>274</ele>
        <time>2020-09-22T11:01:21Z</time>
      </trkpt>
      <trkpt lat="46.5463" lon="4.83773">
        <ele>274</ele>
        <time>2020-09-22T11:01:23Z</time>
      </trkpt>
      <trkpt lat="46.54605" lon="4.83794">
        <ele>273</ele>
        <time>2020-09-22T11:01:30Z</time>
      </trkpt>
      <trkpt lat="46.54594" lon="4.83797">
        <ele>273</ele>
        <time>2020-09-22T11:01:33Z</time>
      </trkpt>
      <trkpt lat="46.54584" lon="4.83792">
        <ele>273</ele>
        <time>2020-09-22T11:01:35Z</time>
      </trkpt>
      <trkpt lat="46.54543" lon="4.83738">
        <ele>274</ele>
        <time>2020-09-22T11:01:48Z</time>
      </trkpt>
      <trkpt lat="46.54559" lon="4.8369">
        <ele>278</ele>
        <time>2020-09-22T11:01:57Z</time>
      </trkpt>
      <trkpt lat="46.54552" lon="4.83672">
        <ele>279</ele>
        <time>2020-09-22T11:02:00Z</time>
      </trkpt>
      <trkpt lat="46.54549" lon="4.83648">
        <ele>280</ele>
        <time>2020-09-22T11:02:04Z</time>
      </trkpt>
      <trkpt lat="46.54543" lon="4.83635">
        <ele>280</ele>
        <time>2020-09-22T11:02:06Z</time>
      </trkpt>
      <trkpt lat="46.54532" lon="4.83622">
        <ele>281</ele>
        <time>2020-09-22T11:02:10Z</time>
      </trkpt>
      <trkpt lat="46.54511" lon="4.83605">
        <ele>281</ele>
        <time>2020-09-22T11:02:15Z</time>
      </trkpt>
      <trkpt lat="46.54509" lon="4.83578">
        <ele>282</ele>
        <time>2020-09-22T11:02:20Z</time>
      </trkpt>
      <trkpt lat="46.54514" lon="4.83538">
        <ele>285</ele>
        <time>2020-09-22T11:02:26Z</time>
      </trkpt>
      <trkpt lat="46.5451" lon="4.83508">
        <ele>286</ele>
        <time>2020-09-22T11:02:31Z</time>
      </trkpt>
      <trkpt lat="46.54468" lon="4.83383">
        <ele>294</ele>
        <time>2020-09-22T11:02:53Z</time>
      </trkpt>
      <trkpt lat="46.54458" lon="4.83361">
        <ele>294</ele>
        <time>2020-09-22T11:02:58Z</time>
      </trkpt>
      <trkpt lat="46.54423" lon="4.83307">
        <ele>295</ele>
        <time>2020-09-22T11:03:10Z</time>
      </trkpt>
      <trkpt lat="46.5441" lon="4.83271">
        <ele>296</ele>
        <time>2020-09-22T11:03:16Z</time>
      </trkpt>
      <trkpt lat="46.54411" lon="4.83262">
        <ele>297</ele>
        <time>2020-09-22T11:03:18Z</time>
      </trkpt>
      <trkpt lat="46.54425" lon="4.83225">
        <ele>301</ele>
        <time>2020-09-22T11:03:24Z</time>
      </trkpt>
      <trkpt lat="46.54431" lon="4.83185">
        <ele>304</ele>
        <time>2020-09-22T11:03:31Z</time>
      </trkpt>
      <trkpt lat="46.5443" lon="4.83161">
        <ele>306</ele>
        <time>2020-09-22T11:03:35Z</time>
      </trkpt>
      <trkpt lat="46.5441" lon="4.83086">
        <ele>309</ele>
        <time>2020-09-22T11:03:48Z</time>
      </trkpt>
      <trkpt lat="46.54407" lon="4.83061">
        <ele>312</ele>
        <time>2020-09-22T11:03:52Z</time>
      </trkpt>
      <trkpt lat="46.54409" lon="4.83046">
        <ele>313</ele>
        <time>2020-09-22T11:03:54Z</time>
      </trkpt>
      <trkpt lat="46.54426" lon="4.82997">
        <ele>319</ele>
        <time>2020-09-22T11:04:03Z</time>
      </trkpt>
      <trkpt lat="46.54471" lon="4.82845">
        <ele>335</ele>
        <time>2020-09-22T11:04:30Z</time>
      </trkpt>
      <trkpt lat="46.54477" lon="4.82799">
        <ele>340</ele>
        <time>2020-09-22T11:04:37Z</time>
      </trkpt>
      <trkpt lat="46.54482" lon="4.82779">
        <ele>342</ele>
        <time>2020-09-22T11:04:41Z</time>
      </trkpt>
      <trkpt lat="46.54488" lon="4.82729">
        <ele>345</ele>
        <time>2020-09-22T11:04:49Z</time>
      </trkpt>
      <trkpt lat="46.54488" lon="4.82677">
        <ele>348</ele>
        <time>2020-09-22T11:04:57Z</time>
      </trkpt>
      <trkpt lat="46.54484" lon="4.82602">
        <ele>348</ele>
        <time>2020-09-22T11:05:09Z</time>
      </trkpt>
      <trkpt lat="46.54488" lon="4.82546">
        <ele>344</ele>
        <time>2020-09-22T11:05:18Z</time>
      </trkpt>
      <trkpt lat="46.54491" lon="4.8254">
        <ele>343</ele>
        <time>2020-09-22T11:05:19Z</time>
      </trkpt>
      <trkpt lat="46.54506" lon="4.82534">
        <ele>342</ele>
        <time>2020-09-22T11:05:23Z</time>
      </trkpt>
      <trkpt lat="46.5452" lon="4.82535">
        <ele>340</ele>
        <time>2020-09-22T11:05:26Z</time>
      </trkpt>
      <trkpt lat="46.54569" lon="4.82549">
        <ele>338</ele>
        <time>2020-09-22T11:05:38Z</time>
      </trkpt>
      <trkpt lat="46.54593" lon="4.82553">
        <ele>337</ele>
        <time>2020-09-22T11:05:44Z</time>
      </trkpt>
      <trkpt lat="46.54607" lon="4.82545">
        <ele>334</ele>
        <time>2020-09-22T11:05:47Z</time>
      </trkpt>
      <trkpt lat="46.54614" lon="4.82535">
        <ele>332</ele>
        <time>2020-09-22T11:05:49Z</time>
      </trkpt>
      <trkpt lat="46.54699" lon="4.82264">
        <ele>304</ele>
        <time>2020-09-22T11:06:37Z</time>
      </trkpt>
      <trkpt lat="46.54623" lon="4.82208">
        <ele>309</ele>
        <time>2020-09-22T11:06:57Z</time>
      </trkpt>
      <trkpt lat="46.54603" lon="4.82197">
        <ele>311</ele>
        <time>2020-09-22T11:07:02Z</time>
      </trkpt>
      <trkpt lat="46.54597" lon="4.8219">
        <ele>312</ele>
        <time>2020-09-22T11:07:04Z</time>
      </trkpt>
      <trkpt lat="46.54601" lon="4.82188">
        <ele>311</ele>
        <time>2020-09-22T11:07:05Z</time>
      </trkpt>
      <trkpt lat="46.5468" lon="4.8225">
        <ele>306</ele>
        <time>2020-09-22T11:07:26Z</time>
      </trkpt>
      <trkpt lat="46.54601" lon="4.82188">
        <ele>311</ele>
        <time>2020-09-22T11:07:47Z</time>
      </trkpt>
      <trkpt lat="46.54616" lon="4.82186">
        <ele>310</ele>
        <time>2020-09-22T11:07:50Z</time>
      </trkpt>
      <trkpt lat="46.54626" lon="4.82189">
        <ele>309</ele>
        <time>2020-09-22T11:07:53Z</time>
      </trkpt>
      <trkpt lat="46.54661" lon="4.82207">
        <ele>306</ele>
        <time>2020-09-22T11:08:01Z</time>
      </trkpt>
      <trkpt lat="46.54692" lon="4.82134">
        <ele>301</ele>
        <time>2020-09-22T11:08:15Z</time>
      </trkpt>
      <trkpt lat="46.5471" lon="4.82079">
        <ele>299</ele>
        <time>2020-09-22T11:08:25Z</time>
      </trkpt>
      <trkpt lat="46.54719" lon="4.82061">
        <ele>300</ele>
        <time>2020-09-22T11:08:29Z</time>
      </trkpt>
      <trkpt lat="46.54801" lon="4.82018">
        <ele>296</ele>
        <time>2020-09-22T11:08:49Z</time>
      </trkpt>
      <trkpt lat="46.5483" lon="4.82012">
        <ele>293</ele>
        <time>2020-09-22T11:08:56Z</time>
      </trkpt>
      <trkpt lat="46.5487" lon="4.81997">
        <ele>290</ele>
        <time>2020-09-22T11:09:05Z</time>
      </trkpt>
      <trkpt lat="46.54908" lon="4.81996">
        <ele>285</ele>
        <time>2020-09-22T11:09:14Z</time>
      </trkpt>
      <trkpt lat="46.5493" lon="4.81989">
        <ele>285</ele>
        <time>2020-09-22T11:09:20Z</time>
      </trkpt>
      <trkpt lat="46.55022" lon="4.81971">
        <ele>287</ele>
        <time>2020-09-22T11:09:41Z</time>
      </trkpt>
      <trkpt lat="46.55036" lon="4.81967">
        <ele>288</ele>
        <time>2020-09-22T11:09:45Z</time>
      </trkpt>
      <trkpt lat="46.55038" lon="4.81958">
        <ele>288</ele>
        <time>2020-09-22T11:09:46Z</time>
      </trkpt>
      <trkpt lat="46.55037" lon="4.81954">
        <ele>288</ele>
        <time>2020-09-22T11:09:47Z</time>
      </trkpt>
      <trkpt lat="46.55013" lon="4.8193">
        <ele>290</ele>
        <time>2020-09-22T11:09:54Z</time>
      </trkpt>
      <trkpt lat="46.54999" lon="4.81909">
        <ele>292</ele>
        <time>2020-09-22T11:09:58Z</time>
      </trkpt>
      <trkpt lat="46.54995" lon="4.81898">
        <ele>293</ele>
        <time>2020-09-22T11:10:00Z</time>
      </trkpt>
      <trkpt lat="46.54993" lon="4.81881">
        <ele>294</ele>
        <time>2020-09-22T11:10:03Z</time>
      </trkpt>
      <trkpt lat="46.55001" lon="4.81838">
        <ele>296</ele>
        <time>2020-09-22T11:10:10Z</time>
      </trkpt>
      <trkpt lat="46.55003" lon="4.81806">
        <ele>297</ele>
        <time>2020-09-22T11:10:15Z</time>
      </trkpt>
      <trkpt lat="46.54994" lon="4.8176">
        <ele>299</ele>
        <time>2020-09-22T11:10:23Z</time>
      </trkpt>
      <trkpt lat="46.54975" lon="4.8171">
        <ele>302</ele>
        <time>2020-09-22T11:10:32Z</time>
      </trkpt>
      <trkpt lat="46.54919" lon="4.81616">
        <ele>312</ele>
        <time>2020-09-22T11:10:52Z</time>
      </trkpt>
      <trkpt lat="46.54901" lon="4.81569">
        <ele>315</ele>
        <time>2020-09-22T11:11:01Z</time>
      </trkpt>
      <trkpt lat="46.54895" lon="4.81543">
        <ele>317</ele>
        <time>2020-09-22T11:11:05Z</time>
      </trkpt>
      <trkpt lat="46.54892" lon="4.81525">
        <ele>318</ele>
        <time>2020-09-22T11:11:08Z</time>
      </trkpt>
      <trkpt lat="46.54897" lon="4.81497">
        <ele>319</ele>
        <time>2020-09-22T11:11:13Z</time>
      </trkpt>
      <trkpt lat="46.54925" lon="4.814">
        <ele>325</ele>
        <time>2020-09-22T11:11:30Z</time>
      </trkpt>
      <trkpt lat="46.54924" lon="4.81387">
        <ele>326</ele>
        <time>2020-09-22T11:11:32Z</time>
      </trkpt>
      <trkpt lat="46.54911" lon="4.81374">
        <ele>328</ele>
        <time>2020-09-22T11:11:36Z</time>
      </trkpt>
      <trkpt lat="46.5489" lon="4.8136">
        <ele>330</ele>
        <time>2020-09-22T11:11:41Z</time>
      </trkpt>
      <trkpt lat="46.54878" lon="4.81346">
        <ele>332</ele>
        <time>2020-09-22T11:11:45Z</time>
      </trkpt>
      <trkpt lat="46.54874" lon="4.81336">
        <ele>333</ele>
        <time>2020-09-22T11:11:46Z</time>
      </trkpt>
      <trkpt lat="46.54867" lon="4.8128">
        <ele>338</ele>
        <time>2020-09-22T11:11:56Z</time>
      </trkpt>
      <trkpt lat="46.54862" lon="4.81262">
        <ele>339</ele>
        <time>2020-09-22T11:11:59Z</time>
      </trkpt>
      <trkpt lat="46.54801" lon="4.81118">
        <ele>349</ele>
        <time>2020-09-22T11:12:26Z</time>
      </trkpt>
      <trkpt lat="46.54788" lon="4.8105">
        <ele>353</ele>
        <time>2020-09-22T11:12:37Z</time>
      </trkpt>
      <trkpt lat="46.54768" lon="4.81006">
        <ele>357</ele>
        <time>2020-09-22T11:12:46Z</time>
      </trkpt>
      <trkpt lat="46.54741" lon="4.80968">
        <ele>359</ele>
        <time>2020-09-22T11:12:54Z</time>
      </trkpt>
      <trkpt lat="46.54733" lon="4.80952">
        <ele>359</ele>
        <time>2020-09-22T11:12:58Z</time>
      </trkpt>
      <trkpt lat="46.54708" lon="4.80884">
        <ele>362</ele>
        <time>2020-09-22T11:13:10Z</time>
      </trkpt>
      <trkpt lat="46.54701" lon="4.80871">
        <ele>362</ele>
        <time>2020-09-22T11:13:13Z</time>
      </trkpt>
      <trkpt lat="46.54671" lon="4.80846">
        <ele>363</ele>
        <time>2020-09-22T11:13:21Z</time>
      </trkpt>
      <trkpt lat="46.54645" lon="4.80816">
        <ele>366</ele>
        <time>2020-09-22T11:13:28Z</time>
      </trkpt>
      <trkpt lat="46.54592" lon="4.80741">
        <ele>371</ele>
        <time>2020-09-22T11:13:46Z</time>
      </trkpt>
      <trkpt lat="46.54557" lon="4.80662">
        <ele>378</ele>
        <time>2020-09-22T11:14:01Z</time>
      </trkpt>
      <trkpt lat="46.54511" lon="4.80584">
        <ele>382</ele>
        <time>2020-09-22T11:14:17Z</time>
      </trkpt>
      <trkpt lat="46.54509" lon="4.80553">
        <ele>382</ele>
        <time>2020-09-22T11:14:22Z</time>
      </trkpt>
      <trkpt lat="46.54507" lon="4.80552">
        <ele>382</ele>
        <time>2020-09-22T11:14:23Z</time>
      </trkpt>
      <trkpt lat="46.54472" lon="4.80405">
        <ele>381</ele>
        <time>2020-09-22T11:14:48Z</time>
      </trkpt>
      <trkpt lat="46.54467" lon="4.80325">
        <ele>380</ele>
        <time>2020-09-22T11:15:01Z</time>
      </trkpt>
      <trkpt lat="46.54462" lon="4.80286">
        <ele>380</ele>
        <time>2020-09-22T11:15:07Z</time>
      </trkpt>
      <trkpt lat="46.54374" lon="4.80213">
        <ele>374</ele>
        <time>2020-09-22T11:15:31Z</time>
      </trkpt>
      <trkpt lat="46.54363" lon="4.80207">
        <ele>373</ele>
        <time>2020-09-22T11:15:33Z</time>
      </trkpt>
      <trkpt lat="46.54365" lon="4.8018">
        <ele>373</ele>
        <time>2020-09-22T11:15:38Z</time>
      </trkpt>
      <trkpt lat="46.54373" lon="4.80139">
        <ele>372</ele>
        <time>2020-09-22T11:15:45Z</time>
      </trkpt>
      <trkpt lat="46.54378" lon="4.80072">
        <ele>369</ele>
        <time>2020-09-22T11:15:56Z</time>
      </trkpt>
      <trkpt lat="46.54387" lon="4.80046">
        <ele>367</ele>
        <time>2020-09-22T11:16:00Z</time>
      </trkpt>
      <trkpt lat="46.54425" lon="4.79997">
        <ele>364</ele>
        <time>2020-09-22T11:16:12Z</time>
      </trkpt>
      <trkpt lat="46.54431" lon="4.79987">
        <ele>363</ele>
        <time>2020-09-22T11:16:14Z</time>
      </trkpt>
      <trkpt lat="46.5443" lon="4.7998">
        <ele>362</ele>
        <time>2020-09-22T11:16:15Z</time>
      </trkpt>
      <trkpt lat="46.54491" lon="4.79907">
        <ele>361</ele>
        <time>2020-09-22T11:16:34Z</time>
      </trkpt>
      <trkpt lat="46.54502" lon="4.79896">
        <ele>360</ele>
        <time>2020-09-22T11:16:37Z</time>
      </trkpt>
      <trkpt lat="46.54563" lon="4.79861">
        <ele>360</ele>
        <time>2020-09-22T11:16:52Z</time>
      </trkpt>
      <trkpt lat="46.54621" lon="4.79798">
        <ele>358</ele>
        <time>2020-09-22T11:17:09Z</time>
      </trkpt>
      <trkpt lat="46.54652" lon="4.79754">
        <ele>358</ele>
        <time>2020-09-22T11:17:19Z</time>
      </trkpt>
      <trkpt lat="46.54676" lon="4.7971">
        <ele>359</ele>
        <time>2020-09-22T11:17:28Z</time>
      </trkpt>
      <trkpt lat="46.54668" lon="4.79711">
        <ele>358</ele>
        <time>2020-09-22T11:17:30Z</time>
      </trkpt>
      <trkpt lat="46.54639" lon="4.79747">
        <ele>354</ele>
        <time>2020-09-22T11:17:39Z</time>
      </trkpt>
      <trkpt lat="46.54626" lon="4.79754">
        <ele>352</ele>
        <time>2020-09-22T11:17:42Z</time>
      </trkpt>
      <trkpt lat="46.54572" lon="4.79772">
        <ele>345</ele>
        <time>2020-09-22T11:17:55Z</time>
      </trkpt>
      <trkpt lat="46.54539" lon="4.79774">
        <ele>342</ele>
        <time>2020-09-22T11:18:03Z</time>
      </trkpt>
      <trkpt lat="46.54534" lon="4.79782">
        <ele>344</ele>
        <time>2020-09-22T11:18:05Z</time>
      </trkpt>
      <trkpt lat="46.54501" lon="4.798">
        <ele>344</ele>
        <time>2020-09-22T11:18:13Z</time>
      </trkpt>
      <trkpt lat="46.54482" lon="4.79806">
        <ele>345</ele>
        <time>2020-09-22T11:18:17Z</time>
      </trkpt>
      <trkpt lat="46.54448" lon="4.79809">
        <ele>344</ele>
        <time>2020-09-22T11:18:25Z</time>
      </trkpt>
      <trkpt lat="46.5442" lon="4.7982">
        <ele>343</ele>
        <time>2020-09-22T11:18:32Z</time>
      </trkpt>
      <trkpt lat="46.54398" lon="4.79841">
        <ele>344</ele>
        <time>2020-09-22T11:18:38Z</time>
      </trkpt>
      <trkpt lat="46.54381" lon="4.79879">
        <ele>348</ele>
        <time>2020-09-22T11:18:46Z</time>
      </trkpt>
      <trkpt lat="46.54363" lon="4.79896">
        <ele>349</ele>
        <time>2020-09-22T11:18:51Z</time>
      </trkpt>
      <trkpt lat="46.54292" lon="4.79937">
        <ele>351</ele>
        <time>2020-09-22T11:19:08Z</time>
      </trkpt>
      <trkpt lat="46.54274" lon="4.79945">
        <ele>352</ele>
        <time>2020-09-22T11:19:13Z</time>
      </trkpt>
      <trkpt lat="46.5426" lon="4.79945">
        <ele>352</ele>
        <time>2020-09-22T11:19:16Z</time>
      </trkpt>
      <trkpt lat="46.54246" lon="4.79936">
        <ele>352</ele>
        <time>2020-09-22T11:19:20Z</time>
      </trkpt>
      <trkpt lat="46.54239" lon="4.79942">
        <ele>352</ele>
        <time>2020-09-22T11:19:22Z</time>
      </trkpt>
      <trkpt lat="46.54224" lon="4.79956">
        <ele>353</ele>
        <time>2020-09-22T11:19:26Z</time>
      </trkpt>
      <trkpt lat="46.54138" lon="4.80058">
        <ele>354</ele>
        <time>2020-09-22T11:19:52Z</time>
      </trkpt>
      <trkpt lat="46.54109" lon="4.80087">
        <ele>353</ele>
        <time>2020-09-22T11:20:00Z</time>
      </trkpt>
      <trkpt lat="46.54093" lon="4.80093">
        <ele>352</ele>
        <time>2020-09-22T11:20:04Z</time>
      </trkpt>
      <trkpt lat="46.54085" lon="4.80093">
        <ele>352</ele>
        <time>2020-09-22T11:20:06Z</time>
      </trkpt>
      <trkpt lat="46.5407" lon="4.80088">
        <ele>350</ele>
        <time>2020-09-22T11:20:09Z</time>
      </trkpt>
      <trkpt lat="46.54058" lon="4.80081">
        <ele>349</ele>
        <time>2020-09-22T11:20:12Z</time>
      </trkpt>
      <trkpt lat="46.5406" lon="4.80155">
        <ele>346</ele>
        <time>2020-09-22T11:20:24Z</time>
      </trkpt>
      <trkpt lat="46.5407" lon="4.80191">
        <ele>346</ele>
        <time>2020-09-22T11:20:30Z</time>
      </trkpt>
      <trkpt lat="46.5407" lon="4.80209">
        <ele>345</ele>
        <time>2020-09-22T11:20:33Z</time>
      </trkpt>
      <trkpt lat="46.54065" lon="4.80222">
        <ele>344</ele>
        <time>2020-09-22T11:20:36Z</time>
      </trkpt>
      <trkpt lat="46.54059" lon="4.80229">
        <ele>343</ele>
        <time>2020-09-22T11:20:37Z</time>
      </trkpt>
      <trkpt lat="46.54029" lon="4.80251">
        <ele>340</ele>
        <time>2020-09-22T11:20:45Z</time>
      </trkpt>
      <trkpt lat="46.54024" lon="4.80251">
        <ele>340</ele>
        <time>2020-09-22T11:20:46Z</time>
      </trkpt>
      <trkpt lat="46.5392" lon="4.80208">
        <ele>337</ele>
        <time>2020-09-22T11:21:12Z</time>
      </trkpt>
      <trkpt lat="46.53891" lon="4.80202">
        <ele>337</ele>
        <time>2020-09-22T11:21:19Z</time>
      </trkpt>
      <trkpt lat="46.53866" lon="4.80202">
        <ele>337</ele>
        <time>2020-09-22T11:21:24Z</time>
      </trkpt>
      <trkpt lat="46.53754" lon="4.80237">
        <ele>342</ele>
        <time>2020-09-22T11:21:51Z</time>
      </trkpt>
      <trkpt lat="46.53734" lon="4.80246">
        <ele>342</ele>
        <time>2020-09-22T11:21:56Z</time>
      </trkpt>
      <trkpt lat="46.53671" lon="4.80264">
        <ele>340</ele>
        <time>2020-09-22T11:22:11Z</time>
      </trkpt>
      <trkpt lat="46.53646" lon="4.80283">
        <ele>339</ele>
        <time>2020-09-22T11:22:18Z</time>
      </trkpt>
      <trkpt lat="46.53622" lon="4.80309">
        <ele>339</ele>
        <time>2020-09-22T11:22:25Z</time>
      </trkpt>
      <trkpt lat="46.5359" lon="4.80367">
        <ele>337</ele>
        <time>2020-09-22T11:22:37Z</time>
      </trkpt>
      <trkpt lat="46.53562" lon="4.80406">
        <ele>333</ele>
        <time>2020-09-22T11:22:46Z</time>
      </trkpt>
      <trkpt lat="46.53537" lon="4.80434">
        <ele>328</ele>
        <time>2020-09-22T11:22:53Z</time>
      </trkpt>
      <trkpt lat="46.53516" lon="4.80469">
        <ele>325</ele>
        <time>2020-09-22T11:23:00Z</time>
      </trkpt>
      <trkpt lat="46.53492" lon="4.8053">
        <ele>321</ele>
        <time>2020-09-22T11:23:12Z</time>
      </trkpt>
      <trkpt lat="46.53441" lon="4.80628">
        <ele>313</ele>
        <time>2020-09-22T11:23:31Z</time>
      </trkpt>
      <trkpt lat="46.53501" lon="4.80651">
        <ele>320</ele>
        <time>2020-09-22T11:23:46Z</time>
      </trkpt>
      <trkpt lat="46.53534" lon="4.80689">
        <ele>322</ele>
        <time>2020-09-22T11:23:56Z</time>
      </trkpt>
      <trkpt lat="46.53556" lon="4.80709">
        <ele>324</ele>
        <time>2020-09-22T11:24:02Z</time>
      </trkpt>
      <trkpt lat="46.53568" lon="4.80724">
        <ele>324</ele>
        <time>2020-09-22T11:24:06Z</time>
      </trkpt>
      <trkpt lat="46.53623" lon="4.80826">
        <ele>324</ele>
        <time>2020-09-22T11:24:26Z</time>
      </trkpt>
      <trkpt lat="46.53649" lon="4.8084">
        <ele>327</ele>
        <time>2020-09-22T11:24:33Z</time>
      </trkpt>
      <trkpt lat="46.53766" lon="4.80883">
        <ele>343</ele>
        <time>2020-09-22T11:25:01Z</time>
      </trkpt>
      <trkpt lat="46.53801" lon="4.80888">
        <ele>348</ele>
        <time>2020-09-22T11:25:09Z</time>
      </trkpt>
      <trkpt lat="46.53828" lon="4.80897">
        <ele>352</ele>
        <time>2020-09-22T11:25:16Z</time>
      </trkpt>
      <trkpt lat="46.53864" lon="4.80902">
        <ele>358</ele>
        <time>2020-09-22T11:25:24Z</time>
      </trkpt>
      <trkpt lat="46.53932" lon="4.80902">
        <ele>369</ele>
        <time>2020-09-22T11:25:40Z</time>
      </trkpt>
      <trkpt lat="46.53972" lon="4.80934">
        <ele>371</ele>
        <time>2020-09-22T11:25:51Z</time>
      </trkpt>
      <trkpt lat="46.54004" lon="4.8094">
        <ele>375</ele>
        <time>2020-09-22T11:25:58Z</time>
      </trkpt>
      <trkpt lat="46.54038" lon="4.80935">
        <ele>380</ele>
        <time>2020-09-22T11:26:06Z</time>
      </trkpt>
      <trkpt lat="46.54092" lon="4.80937">
        <ele>386</ele>
        <time>2020-09-22T11:26:19Z</time>
      </trkpt>
      <trkpt lat="46.54202" lon="4.80985">
        <ele>390</ele>
        <time>2020-09-22T11:26:46Z</time>
      </trkpt>
      <trkpt lat="46.54307" lon="4.81013">
        <ele>394</ele>
        <time>2020-09-22T11:27:11Z</time>
      </trkpt>
      <trkpt lat="46.543" lon="4.8106">
        <ele>387</ele>
        <time>2020-09-22T11:27:18Z</time>
      </trkpt>
      <trkpt lat="46.54281" lon="4.8113">
        <ele>373</ele>
        <time>2020-09-22T11:27:30Z</time>
      </trkpt>
      <trkpt lat="46.54272" lon="4.81142">
        <ele>371</ele>
        <time>2020-09-22T11:27:33Z</time>
      </trkpt>
      <trkpt lat="46.54248" lon="4.81231">
        <ele>366</ele>
        <time>2020-09-22T11:27:49Z</time>
      </trkpt>
      <trkpt lat="46.54182" lon="4.81234">
        <ele>366</ele>
        <time>2020-09-22T11:28:04Z</time>
      </trkpt>
      <trkpt lat="46.54034" lon="4.81415">
        <ele>356</ele>
        <time>2020-09-22T11:28:49Z</time>
      </trkpt>
      <trkpt lat="46.54016" lon="4.81445">
        <ele>351</ele>
        <time>2020-09-22T11:28:56Z</time>
      </trkpt>
      <trkpt lat="46.54005" lon="4.81452">
        <ele>349</ele>
        <time>2020-09-22T11:28:58Z</time>
      </trkpt>
      <trkpt lat="46.53987" lon="4.81448">
        <ele>347</ele>
        <time>2020-09-22T11:29:03Z</time>
      </trkpt>
      <trkpt lat="46.53977" lon="4.81441">
        <ele>347</ele>
        <time>2020-09-22T11:29:05Z</time>
      </trkpt>
      <trkpt lat="46.53956" lon="4.81439">
        <ele>344</ele>
        <time>2020-09-22T11:29:10Z</time>
      </trkpt>
      <trkpt lat="46.53929" lon="4.81451">
        <ele>340</ele>
        <time>2020-09-22T11:29:17Z</time>
      </trkpt>
      <trkpt lat="46.53927" lon="4.81455">
        <ele>339</ele>
        <time>2020-09-22T11:29:18Z</time>
      </trkpt>
      <trkpt lat="46.53925" lon="4.8146">
        <ele>338</ele>
        <time>2020-09-22T11:29:18Z</time>
      </trkpt>
      <trkpt lat="46.53933" lon="4.81491">
        <ele>336</ele>
        <time>2020-09-22T11:29:24Z</time>
      </trkpt>
      <trkpt lat="46.53935" lon="4.8153">
        <ele>332</ele>
        <time>2020-09-22T11:29:30Z</time>
      </trkpt>
      <trkpt lat="46.53944" lon="4.81556">
        <ele>329</ele>
        <time>2020-09-22T11:29:35Z</time>
      </trkpt>
      <trkpt lat="46.53973" lon="4.81609">
        <ele>327</ele>
        <time>2020-09-22T11:29:46Z</time>
      </trkpt>
      <trkpt lat="46.53984" lon="4.81647">
        <ele>324</ele>
        <time>2020-09-22T11:29:52Z</time>
      </trkpt>
      <trkpt lat="46.5395" lon="4.81758">
        <ele>312</ele>
        <time>2020-09-22T11:30:12Z</time>
      </trkpt>
      <trkpt lat="46.53942" lon="4.81774">
        <ele>311</ele>
        <time>2020-09-22T11:30:15Z</time>
      </trkpt>
      <trkpt lat="46.53948" lon="4.81851">
        <ele>305</ele>
        <time>2020-09-22T11:30:27Z</time>
      </trkpt>
      <trkpt lat="46.53912" lon="4.81862">
        <ele>300</ele>
        <time>2020-09-22T11:30:36Z</time>
      </trkpt>
      <trkpt lat="46.53849" lon="4.81868">
        <ele>291</ele>
        <time>2020-09-22T11:30:51Z</time>
      </trkpt>
      <trkpt lat="46.53846" lon="4.81871">
        <ele>290</ele>
        <time>2020-09-22T11:30:52Z</time>
      </trkpt>
      <trkpt lat="46.53846" lon="4.81886">
        <ele>288</ele>
        <time>2020-09-22T11:30:54Z</time>
      </trkpt>
      <trkpt lat="46.53889" lon="4.81943">
        <ele>288</ele>
        <time>2020-09-22T11:31:08Z</time>
      </trkpt>
      <trkpt lat="46.53896" lon="4.8197">
        <ele>286</ele>
        <time>2020-09-22T11:31:12Z</time>
      </trkpt>
      <trkpt lat="46.53897" lon="4.81986">
        <ele>285</ele>
        <time>2020-09-22T11:31:15Z</time>
      </trkpt>
      <trkpt lat="46.53894" lon="4.82">
        <ele>284</ele>
        <time>2020-09-22T11:31:17Z</time>
      </trkpt>
      <trkpt lat="46.5389" lon="4.82014">
        <ele>284</ele>
        <time>2020-09-22T11:31:20Z</time>
      </trkpt>
      <trkpt lat="46.53878" lon="4.82034">
        <ele>285</ele>
        <time>2020-09-22T11:31:24Z</time>
      </trkpt>
      <trkpt lat="46.53815" lon="4.82117">
        <ele>287</ele>
        <time>2020-09-22T11:31:44Z</time>
      </trkpt>
      <trkpt lat="46.53785" lon="4.82149">
        <ele>289</ele>
        <time>2020-09-22T11:31:52Z</time>
      </trkpt>
      <trkpt lat="46.53748" lon="4.82148">
        <ele>287</ele>
        <time>2020-09-22T11:32:01Z</time>
      </trkpt>
      <trkpt lat="46.53706" lon="4.82162">
        <ele>283</ele>
        <time>2020-09-22T11:32:11Z</time>
      </trkpt>
      <trkpt lat="46.53646" lon="4.82152">
        <ele>274</ele>
        <time>2020-09-22T11:32:25Z</time>
      </trkpt>
      <trkpt lat="46.53635" lon="4.82151">
        <ele>273</ele>
        <time>2020-09-22T11:32:28Z</time>
      </trkpt>
      <trkpt lat="46.53627" lon="4.82153">
        <ele>272</ele>
        <time>2020-09-22T11:32:30Z</time>
      </trkpt>
      <trkpt lat="46.53591" lon="4.82175">
        <ele>268</ele>
        <time>2020-09-22T11:32:39Z</time>
      </trkpt>
      <trkpt lat="46.53539" lon="4.82189">
        <ele>266</ele>
        <time>2020-09-22T11:32:51Z</time>
      </trkpt>
      <trkpt lat="46.53515" lon="4.82209">
        <ele>265</ele>
        <time>2020-09-22T11:32:58Z</time>
      </trkpt>
      <trkpt lat="46.53451" lon="4.82255">
        <ele>264</ele>
        <time>2020-09-22T11:33:14Z</time>
      </trkpt>
      <trkpt lat="46.53435" lon="4.82265">
        <ele>264</ele>
        <time>2020-09-22T11:33:18Z</time>
      </trkpt>
      <trkpt lat="46.53427" lon="4.82265">
        <ele>264</ele>
        <time>2020-09-22T11:33:20Z</time>
      </trkpt>
      <trkpt lat="46.53412" lon="4.82243">
        <ele>263</ele>
        <time>2020-09-22T11:33:25Z</time>
      </trkpt>
      <trkpt lat="46.53404" lon="4.82236">
        <ele>263</ele>
        <time>2020-09-22T11:33:27Z</time>
      </trkpt>
      <trkpt lat="46.53382" lon="4.82229">
        <ele>261</ele>
        <time>2020-09-22T11:33:33Z</time>
      </trkpt>
      <trkpt lat="46.53323" lon="4.82218">
        <ele>258</ele>
        <time>2020-09-22T11:33:46Z</time>
      </trkpt>
      <trkpt lat="46.53304" lon="4.82212">
        <ele>258</ele>
        <time>2020-09-22T11:33:51Z</time>
      </trkpt>
      <trkpt lat="46.53282" lon="4.82188">
        <ele>258</ele>
        <time>2020-09-22T11:33:57Z</time>
      </trkpt>
      <trkpt lat="46.53273" lon="4.82191">
        <ele>258</ele>
        <time>2020-09-22T11:34:00Z</time>
      </trkpt>
      <trkpt lat="46.53268" lon="4.822">
        <ele>258</ele>
        <time>2020-09-22T11:34:01Z</time>
      </trkpt>
      <trkpt lat="46.53261" lon="4.822">
        <ele>258</ele>
        <time>2020-09-22T11:34:03Z</time>
      </trkpt>
      <trkpt lat="46.53229" lon="4.82219">
        <ele>258</ele>
        <time>2020-09-22T11:34:11Z</time>
      </trkpt>
      <trkpt lat="46.53219" lon="4.82222">
        <ele>258</ele>
        <time>2020-09-22T11:34:14Z</time>
      </trkpt>
      <trkpt lat="46.5321" lon="4.82221">
        <ele>258</ele>
        <time>2020-09-22T11:34:16Z</time>
      </trkpt>
      <trkpt lat="46.53208" lon="4.82211">
        <ele>259</ele>
        <time>2020-09-22T11:34:17Z</time>
      </trkpt>
      <trkpt lat="46.53209" lon="4.82175">
        <ele>261</ele>
        <time>2020-09-22T11:34:23Z</time>
      </trkpt>
      <trkpt lat="46.53164" lon="4.82119">
        <ele>264</ele>
        <time>2020-09-22T11:34:37Z</time>
      </trkpt>
      <trkpt lat="46.53146" lon="4.82103">
        <ele>263</ele>
        <time>2020-09-22T11:34:42Z</time>
      </trkpt>
      <trkpt lat="46.5313" lon="4.82107">
        <ele>263</ele>
        <time>2020-09-22T11:34:46Z</time>
      </trkpt>
      <trkpt lat="46.53123" lon="4.82106">
        <ele>263</ele>
        <time>2020-09-22T11:34:47Z</time>
      </trkpt>
      <trkpt lat="46.53103" lon="4.82095">
        <ele>263</ele>
        <time>2020-09-22T11:34:52Z</time>
      </trkpt>
      <trkpt lat="46.5309" lon="4.82091">
        <ele>263</ele>
        <time>2020-09-22T11:34:55Z</time>
      </trkpt>
      <trkpt lat="46.53084" lon="4.82091">
        <ele>263</ele>
        <time>2020-09-22T11:34:57Z</time>
      </trkpt>
      <trkpt lat="46.53081" lon="4.82094">
        <ele>263</ele>
        <time>2020-09-22T11:34:58Z</time>
      </trkpt>
      <trkpt lat="46.53078" lon="4.82099">
        <ele>263</ele>
        <time>2020-09-22T11:34:59Z</time>
      </trkpt>
      <trkpt lat="46.53077" lon="4.82113">
        <ele>262</ele>
        <time>2020-09-22T11:35:01Z</time>
      </trkpt>
      <trkpt lat="46.5308" lon="4.82128">
        <ele>261</ele>
        <time>2020-09-22T11:35:03Z</time>
      </trkpt>
      <trkpt lat="46.53087" lon="4.82142">
        <ele>260</ele>
        <time>2020-09-22T11:35:06Z</time>
      </trkpt>
      <trkpt lat="46.53082" lon="4.8216">
        <ele>259</ele>
        <time>2020-09-22T11:35:09Z</time>
      </trkpt>
      <trkpt lat="46.53074" lon="4.82173">
        <ele>259</ele>
        <time>2020-09-22T11:35:12Z</time>
      </trkpt>
      <trkpt lat="46.53025" lon="4.82213">
        <ele>268</ele>
        <time>2020-09-22T11:35:25Z</time>
      </trkpt>
      <trkpt lat="46.53018" lon="4.82225">
        <ele>270</ele>
        <time>2020-09-22T11:35:28Z</time>
      </trkpt>
      <trkpt lat="46.5303" lon="4.8223">
        <ele>269</ele>
        <time>2020-09-22T11:35:31Z</time>
      </trkpt>
      <trkpt lat="46.53036" lon="4.82238">
        <ele>268</ele>
        <time>2020-09-22T11:35:33Z</time>
      </trkpt>
      <trkpt lat="46.53055" lon="4.82285">
        <ele>273</ele>
        <time>2020-09-22T11:35:41Z</time>
      </trkpt>
      <trkpt lat="46.53068" lon="4.8231">
        <ele>274</ele>
        <time>2020-09-22T11:35:46Z</time>
      </trkpt>
      <trkpt lat="46.53084" lon="4.82332">
        <ele>274</ele>
        <time>2020-09-22T11:35:52Z</time>
      </trkpt>
      <trkpt lat="46.53194" lon="4.82448">
        <ele>266</ele>
        <time>2020-09-22T11:36:23Z</time>
      </trkpt>
      <trkpt lat="46.53244" lon="4.82538">
        <ele>262</ele>
        <time>2020-09-22T11:36:42Z</time>
      </trkpt>
      <trkpt lat="46.53256" lon="4.82575">
        <ele>262</ele>
        <time>2020-09-22T11:36:48Z</time>
      </trkpt>
      <trkpt lat="46.5326" lon="4.82602">
        <ele>263</ele>
        <time>2020-09-22T11:36:53Z</time>
      </trkpt>
      <trkpt lat="46.5326" lon="4.82615">
        <ele>263</ele>
        <time>2020-09-22T11:36:55Z</time>
      </trkpt>
      <trkpt lat="46.53255" lon="4.8264">
        <ele>264</ele>
        <time>2020-09-22T11:36:59Z</time>
      </trkpt>
      <trkpt lat="46.53246" lon="4.82665">
        <ele>266</ele>
        <time>2020-09-22T11:37:04Z</time>
      </trkpt>
      <trkpt lat="46.53239" lon="4.82697">
        <ele>268</ele>
        <time>2020-09-22T11:37:09Z</time>
      </trkpt>
      <trkpt lat="46.53237" lon="4.82787">
        <ele>267</ele>
        <time>2020-09-22T11:37:24Z</time>
      </trkpt>
      <trkpt lat="46.53241" lon="4.82871">
        <ele>262</ele>
        <time>2020-09-22T11:37:37Z</time>
      </trkpt>
      <trkpt lat="46.53238" lon="4.82895">
        <ele>261</ele>
        <time>2020-09-22T11:37:41Z</time>
      </trkpt>
      <trkpt lat="46.53211" lon="4.82951">
        <ele>261</ele>
        <time>2020-09-22T11:37:52Z</time>
      </trkpt>
      <trkpt lat="46.53197" lon="4.8297">
        <ele>261</ele>
        <time>2020-09-22T11:37:57Z</time>
      </trkpt>
      <trkpt lat="46.53134" lon="4.83082">
        <ele>257</ele>
        <time>2020-09-22T11:38:20Z</time>
      </trkpt>
      <trkpt lat="46.5312" lon="4.83116">
        <ele>259</ele>
        <time>2020-09-22T11:38:26Z</time>
      </trkpt>
      <trkpt lat="46.53118" lon="4.83133">
        <ele>259</ele>
        <time>2020-09-22T11:38:29Z</time>
      </trkpt>
      <trkpt lat="46.53121" lon="4.83164">
        <ele>260</ele>
        <time>2020-09-22T11:38:34Z</time>
      </trkpt>
      <trkpt lat="46.53127" lon="4.83182">
        <ele>262</ele>
        <time>2020-09-22T11:38:37Z</time>
      </trkpt>
      <trkpt lat="46.53187" lon="4.83243">
        <ele>261</ele>
        <time>2020-09-22T11:38:54Z</time>
      </trkpt>
      <trkpt lat="46.53239" lon="4.83315">
        <ele>265</ele>
        <time>2020-09-22T11:39:11Z</time>
      </trkpt>
      <trkpt lat="46.5323" lon="4.83311">
        <ele>265</ele>
        <time>2020-09-22T11:39:13Z</time>
      </trkpt>
      <trkpt lat="46.53213" lon="4.83296">
        <ele>265</ele>
        <time>2020-09-22T11:39:18Z</time>
      </trkpt>
      <trkpt lat="46.53205" lon="4.83292">
        <ele>265</ele>
        <time>2020-09-22T11:39:20Z</time>
      </trkpt>
      <trkpt lat="46.53191" lon="4.83291">
        <ele>267</ele>
        <time>2020-09-22T11:39:23Z</time>
      </trkpt>
      <trkpt lat="46.53172" lon="4.83305">
        <ele>271</ele>
        <time>2020-09-22T11:39:28Z</time>
      </trkpt>
      <trkpt lat="46.53093" lon="4.8332">
        <ele>279</ele>
        <time>2020-09-22T11:39:47Z</time>
      </trkpt>
      <trkpt lat="46.53043" lon="4.8334">
        <ele>284</ele>
        <time>2020-09-22T11:39:59Z</time>
      </trkpt>
      <trkpt lat="46.53026" lon="4.83351">
        <ele>285</ele>
        <time>2020-09-22T11:40:03Z</time>
      </trkpt>
      <trkpt lat="46.52938" lon="4.83421">
        <ele>291</ele>
        <time>2020-09-22T11:40:27Z</time>
      </trkpt>
      <trkpt lat="46.52865" lon="4.83463">
        <ele>290</ele>
        <time>2020-09-22T11:40:45Z</time>
      </trkpt>
      <trkpt lat="46.5283" lon="4.83491">
        <ele>287</ele>
        <time>2020-09-22T11:40:54Z</time>
      </trkpt>
      <trkpt lat="46.52768" lon="4.83508">
        <ele>282</ele>
        <time>2020-09-22T11:41:09Z</time>
      </trkpt>
      <trkpt lat="46.52723" lon="4.83557">
        <ele>278</ele>
        <time>2020-09-22T11:41:22Z</time>
      </trkpt>
      <trkpt lat="46.52707" lon="4.83565">
        <ele>278</ele>
        <time>2020-09-22T11:41:26Z</time>
      </trkpt>
      <trkpt lat="46.52691" lon="4.83568">
        <ele>278</ele>
        <time>2020-09-22T11:41:30Z</time>
      </trkpt>
      <trkpt lat="46.52649" lon="4.83569">
        <ele>279</ele>
        <time>2020-09-22T11:41:40Z</time>
      </trkpt>
      <trkpt lat="46.52591" lon="4.83576">
        <ele>281</ele>
        <time>2020-09-22T11:41:53Z</time>
      </trkpt>
      <trkpt lat="46.52552" lon="4.83601">
        <ele>282</ele>
        <time>2020-09-22T11:42:03Z</time>
      </trkpt>
      <trkpt lat="46.52546" lon="4.83603">
        <ele>282</ele>
        <time>2020-09-22T11:42:05Z</time>
      </trkpt>
      <trkpt lat="46.52524" lon="4.83603">
        <ele>283</ele>
        <time>2020-09-22T11:42:10Z</time>
      </trkpt>
      <trkpt lat="46.52515" lon="4.83606">
        <ele>284</ele>
        <time>2020-09-22T11:42:12Z</time>
      </trkpt>
      <trkpt lat="46.52511" lon="4.8361">
        <ele>284</ele>
        <time>2020-09-22T11:42:13Z</time>
      </trkpt>
      <trkpt lat="46.52475" lon="4.8369">
        <ele>285</ele>
        <time>2020-09-22T11:42:28Z</time>
      </trkpt>
      <trkpt lat="46.52532" lon="4.83716">
        <ele>281</ele>
        <time>2020-09-22T11:42:42Z</time>
      </trkpt>
      <trkpt lat="46.52545" lon="4.83726">
        <ele>279</ele>
        <time>2020-09-22T11:42:46Z</time>
      </trkpt>
      <trkpt lat="46.52552" lon="4.83736">
        <ele>279</ele>
        <time>2020-09-22T11:42:48Z</time>
      </trkpt>
      <trkpt lat="46.52551" lon="4.83759">
        <ele>278</ele>
        <time>2020-09-22T11:42:52Z</time>
      </trkpt>
      <trkpt lat="46.52555" lon="4.8376">
        <ele>277</ele>
        <time>2020-09-22T11:42:53Z</time>
      </trkpt>
      <trkpt lat="46.5259" lon="4.83789">
        <ele>274</ele>
        <time>2020-09-22T11:43:02Z</time>
      </trkpt>
      <trkpt lat="46.52605" lon="4.83783">
        <ele>273</ele>
        <time>2020-09-22T11:43:06Z</time>
      </trkpt>
      <trkpt lat="46.52617" lon="4.83785">
        <ele>272</ele>
        <time>2020-09-22T11:43:09Z</time>
      </trkpt>
      <trkpt lat="46.52706" lon="4.8382">
        <ele>266</ele>
        <time>2020-09-22T11:43:30Z</time>
      </trkpt>
      <trkpt lat="46.52814" lon="4.83847">
        <ele>267</ele>
        <time>2020-09-22T11:43:56Z</time>
      </trkpt>
      <trkpt lat="46.52804" lon="4.83934">
        <ele>264</ele>
        <time>2020-09-22T11:44:10Z</time>
      </trkpt>
      <trkpt lat="46.52798" lon="4.84017">
        <ele>261</ele>
        <time>2020-09-22T11:44:23Z</time>
      </trkpt>
      <trkpt lat="46.52835" lon="4.84024">
        <ele>261</ele>
        <time>2020-09-22T11:44:32Z</time>
      </trkpt>
      <trkpt lat="46.52781" lon="4.84311">
        <ele>275</ele>
        <time>2020-09-22T11:45:20Z</time>
      </trkpt>
      <trkpt lat="46.52742" lon="4.84422">
        <ele>289</ele>
        <time>2020-09-22T11:45:40Z</time>
      </trkpt>
      <trkpt lat="46.52724" lon="4.84483">
        <ele>291</ele>
        <time>2020-09-22T11:45:50Z</time>
      </trkpt>
      <trkpt lat="46.52701" lon="4.84437">
        <ele>290</ele>
        <time>2020-09-22T11:46:00Z</time>
      </trkpt>
      <trkpt lat="46.52694" lon="4.84418">
        <ele>290</ele>
        <time>2020-09-22T11:46:03Z</time>
      </trkpt>
      <trkpt lat="46.52684" lon="4.84426">
        <ele>290</ele>
        <time>2020-09-22T11:46:06Z</time>
      </trkpt>
      <trkpt lat="46.52668" lon="4.84483">
        <ele>290</ele>
        <time>2020-09-22T11:46:16Z</time>
      </trkpt>
      <trkpt lat="46.52643" lon="4.84551">
        <ele>288</ele>
        <time>2020-09-22T11:46:28Z</time>
      </trkpt>
      <trkpt lat="46.52611" lon="4.846">
        <ele>284</ele>
        <time>2020-09-22T11:46:39Z</time>
      </trkpt>
      <trkpt lat="46.52595" lon="4.84615">
        <ele>282</ele>
        <time>2020-09-22T11:46:43Z</time>
      </trkpt>
      <trkpt lat="46.5256" lon="4.84637">
        <ele>280</ele>
        <time>2020-09-22T11:46:52Z</time>
      </trkpt>
      <trkpt lat="46.52514" lon="4.84674">
        <ele>276</ele>
        <time>2020-09-22T11:47:05Z</time>
      </trkpt>
      <trkpt lat="46.52483" lon="4.84701">
        <ele>274</ele>
        <time>2020-09-22T11:47:13Z</time>
      </trkpt>
      <trkpt lat="46.52461" lon="4.84725">
        <ele>272</ele>
        <time>2020-09-22T11:47:19Z</time>
      </trkpt>
      <trkpt lat="46.52428" lon="4.84872">
        <ele>274</ele>
        <time>2020-09-22T11:47:44Z</time>
      </trkpt>
      <trkpt lat="46.52419" lon="4.84934">
        <ele>278</ele>
        <time>2020-09-22T11:47:54Z</time>
      </trkpt>
      <trkpt lat="46.52411" lon="4.84963">
        <ele>280</ele>
        <time>2020-09-22T11:47:59Z</time>
      </trkpt>
      <trkpt lat="46.52405" lon="4.85011">
        <ele>283</ele>
        <time>2020-09-22T11:48:07Z</time>
      </trkpt>
      <trkpt lat="46.52402" lon="4.85141">
        <ele>293</ele>
        <time>2020-09-22T11:48:28Z</time>
      </trkpt>
      <trkpt lat="46.52404" lon="4.85201">
        <ele>296</ele>
        <time>2020-09-22T11:48:38Z</time>
      </trkpt>
      <trkpt lat="46.52402" lon="4.85226">
        <ele>297</ele>
        <time>2020-09-22T11:48:42Z</time>
      </trkpt>
      <trkpt lat="46.52409" lon="4.85335">
        <ele>303</ele>
        <time>2020-09-22T11:48:59Z</time>
      </trkpt>
      <trkpt lat="46.52411" lon="4.85354">
        <ele>304</ele>
        <time>2020-09-22T11:49:03Z</time>
      </trkpt>
      <trkpt lat="46.5242" lon="4.85392">
        <ele>305</ele>
        <time>2020-09-22T11:49:09Z</time>
      </trkpt>
      <trkpt lat="46.52446" lon="4.85466">
        <ele>307</ele>
        <time>2020-09-22T11:49:22Z</time>
      </trkpt>
      <trkpt lat="46.5245" lon="4.8554">
        <ele>306</ele>
        <time>2020-09-22T11:49:34Z</time>
      </trkpt>
      <trkpt lat="46.52449" lon="4.85573">
        <ele>305</ele>
        <time>2020-09-22T11:49:40Z</time>
      </trkpt>
      <trkpt lat="46.52436" lon="4.85676">
        <ele>304</ele>
        <time>2020-09-22T11:49:56Z</time>
      </trkpt>
      <trkpt lat="46.52434" lon="4.85761">
        <ele>301</ele>
        <time>2020-09-22T11:50:10Z</time>
      </trkpt>
      <trkpt lat="46.52444" lon="4.8583">
        <ele>298</ele>
        <time>2020-09-22T11:50:21Z</time>
      </trkpt>
      <trkpt lat="46.52445" lon="4.85886">
        <ele>297</ele>
        <time>2020-09-22T11:50:30Z</time>
      </trkpt>
      <trkpt lat="46.5244" lon="4.85976">
        <ele>298</ele>
        <time>2020-09-22T11:50:45Z</time>
      </trkpt>
      <trkpt lat="46.52441" lon="4.8602">
        <ele>300</ele>
        <time>2020-09-22T11:50:52Z</time>
      </trkpt>
      <trkpt lat="46.52433" lon="4.86082">
        <ele>304</ele>
        <time>2020-09-22T11:51:02Z</time>
      </trkpt>
      <trkpt lat="46.52432" lon="4.86158">
        <ele>309</ele>
        <time>2020-09-22T11:51:14Z</time>
      </trkpt>
      <trkpt lat="46.52434" lon="4.86173">
        <ele>310</ele>
        <time>2020-09-22T11:51:17Z</time>
      </trkpt>
      <trkpt lat="46.52466" lon="4.86274">
        <ele>313</ele>
        <time>2020-09-22T11:51:35Z</time>
      </trkpt>
      <trkpt lat="46.52475" lon="4.86318">
        <ele>313</ele>
        <time>2020-09-22T11:51:42Z</time>
      </trkpt>
      <trkpt lat="46.52476" lon="4.86359">
        <ele>313</ele>
        <time>2020-09-22T11:51:49Z</time>
      </trkpt>
      <trkpt lat="46.52491" lon="4.86571">
        <ele>317</ele>
        <time>2020-09-22T11:52:23Z</time>
      </trkpt>
      <trkpt lat="46.52496" lon="4.86586">
        <ele>317</ele>
        <time>2020-09-22T11:52:26Z</time>
      </trkpt>
      <trkpt lat="46.52529" lon="4.86642">
        <ele>317</ele>
        <time>2020-09-22T11:52:37Z</time>
      </trkpt>
      <trkpt lat="46.52551" lon="4.86669">
        <ele>317</ele>
        <time>2020-09-22T11:52:44Z</time>
      </trkpt>
      <trkpt lat="46.52566" lon="4.86682">
        <ele>316</ele>
        <time>2020-09-22T11:52:48Z</time>
      </trkpt>
      <trkpt lat="46.52591" lon="4.86754">
        <ele>311</ele>
        <time>2020-09-22T11:53:01Z</time>
      </trkpt>
      <trkpt lat="46.52595" lon="4.86778">
        <ele>308</ele>
        <time>2020-09-22T11:53:05Z</time>
      </trkpt>
      <trkpt lat="46.52598" lon="4.86842">
        <ele>300</ele>
        <time>2020-09-22T11:53:15Z</time>
      </trkpt>
      <trkpt lat="46.52609" lon="4.8687">
        <ele>297</ele>
        <time>2020-09-22T11:53:21Z</time>
      </trkpt>
      <trkpt lat="46.52607" lon="4.87012">
        <ele>278</ele>
        <time>2020-09-22T11:53:43Z</time>
      </trkpt>
      <trkpt lat="46.52602" lon="4.87109">
        <ele>265</ele>
        <time>2020-09-22T11:53:59Z</time>
      </trkpt>
      <trkpt lat="46.52604" lon="4.87126">
        <ele>263</ele>
        <time>2020-09-22T11:54:02Z</time>
      </trkpt>
      <trkpt lat="46.52611" lon="4.87138">
        <ele>262</ele>
        <time>2020-09-22T11:54:04Z</time>
      </trkpt>
      <trkpt lat="46.52626" lon="4.8718">
        <ele>258</ele>
        <time>2020-09-22T11:54:12Z</time>
      </trkpt>
      <trkpt lat="46.5262" lon="4.87204">
        <ele>257</ele>
        <time>2020-09-22T11:54:16Z</time>
      </trkpt>
      <trkpt lat="46.52607" lon="4.87222">
        <ele>257</ele>
        <time>2020-09-22T11:54:20Z</time>
      </trkpt>
      <trkpt lat="46.52615" lon="4.87238">
        <ele>256</ele>
        <time>2020-09-22T11:54:23Z</time>
      </trkpt>
      <trkpt lat="46.52602" lon="4.87278">
        <ele>254</ele>
        <time>2020-09-22T11:54:31Z</time>
      </trkpt>
      <trkpt lat="46.5265" lon="4.87344">
        <ele>251</ele>
        <time>2020-09-22T11:54:46Z</time>
      </trkpt>
      <trkpt lat="46.5268" lon="4.8739">
        <ele>250</ele>
        <time>2020-09-22T11:54:56Z</time>
      </trkpt>
      <trkpt lat="46.52696" lon="4.87401">
        <ele>250</ele>
        <time>2020-09-22T11:55:00Z</time>
      </trkpt>
      <trkpt lat="46.52734" lon="4.87421">
        <ele>249</ele>
        <time>2020-09-22T11:55:10Z</time>
      </trkpt>
      <trkpt lat="46.52745" lon="4.87432">
        <ele>249</ele>
        <time>2020-09-22T11:55:13Z</time>
      </trkpt>
      <trkpt lat="46.52763" lon="4.87417">
        <ele>249</ele>
        <time>2020-09-22T11:55:18Z</time>
      </trkpt>
      <trkpt lat="46.52797" lon="4.87432">
        <ele>251</ele>
        <time>2020-09-22T11:55:26Z</time>
      </trkpt>
      <trkpt lat="46.52814" lon="4.87494">
        <ele>252</ele>
        <time>2020-09-22T11:55:37Z</time>
      </trkpt>
      <trkpt lat="46.52836" lon="4.87608">
        <ele>260</ele>
        <time>2020-09-22T11:55:56Z</time>
      </trkpt>
      <trkpt lat="46.52846" lon="4.87629">
        <ele>262</ele>
        <time>2020-09-22T11:56:00Z</time>
      </trkpt>
      <trkpt lat="46.52858" lon="4.87667">
        <ele>266</ele>
        <time>2020-09-22T11:56:07Z</time>
      </trkpt>
      <trkpt lat="46.52864" lon="4.87666">
        <ele>267</ele>
        <time>2020-09-22T11:56:08Z</time>
      </trkpt>
      <trkpt lat="46.52897" lon="4.87636">
        <ele>270</ele>
        <time>2020-09-22T11:56:17Z</time>
      </trkpt>
      <trkpt lat="46.52954" lon="4.87591">
        <ele>273</ele>
        <time>2020-09-22T11:56:32Z</time>
      </trkpt>
      <trkpt lat="46.52979" lon="4.87577">
        <ele>274</ele>
        <time>2020-09-22T11:56:38Z</time>
      </trkpt>
      <trkpt lat="46.53015" lon="4.87566">
        <ele>276</ele>
        <time>2020-09-22T11:56:47Z</time>
      </trkpt>
      <trkpt lat="46.53007" lon="4.87562">
        <ele>275</ele>
        <time>2020-09-22T11:56:49Z</time>
      </trkpt>
      <trkpt lat="46.53031" lon="4.87572">
        <ele>279</ele>
        <time>2020-09-22T11:56:55Z</time>
      </trkpt>
      <trkpt lat="46.5309" lon="4.87583">
        <ele>286</ele>
        <time>2020-09-22T11:57:09Z</time>
      </trkpt>
      <trkpt lat="46.53125" lon="4.87587">
        <ele>291</ele>
        <time>2020-09-22T11:57:17Z</time>
      </trkpt>
      <trkpt lat="46.53174" lon="4.87607">
        <ele>299</ele>
        <time>2020-09-22T11:57:29Z</time>
      </trkpt>
      <trkpt lat="46.53205" lon="4.87627">
        <ele>302</ele>
        <time>2020-09-22T11:57:37Z</time>
      </trkpt>
      <trkpt lat="46.53214" lon="4.87642">
        <ele>304</ele>
        <time>2020-09-22T11:57:40Z</time>
      </trkpt>
      <trkpt lat="46.53235" lon="4.87666">
        <ele>306</ele>
        <time>2020-09-22T11:57:46Z</time>
      </trkpt>
      <trkpt lat="46.53251" lon="4.87691">
        <ele>305</ele>
        <time>2020-09-22T11:57:52Z</time>
      </trkpt>
      <trkpt lat="46.53272" lon="4.87711">
        <ele>306</ele>
        <time>2020-09-22T11:57:58Z</time>
      </trkpt>
      <trkpt lat="46.53275" lon="4.87703">
        <ele>306</ele>
        <time>2020-09-22T11:57:59Z</time>
      </trkpt>
      <trkpt lat="46.53277" lon="4.87502">
        <ele>294</ele>
        <time>2020-09-22T11:58:31Z</time>
      </trkpt>
      <trkpt lat="46.53281" lon="4.8746">
        <ele>291</ele>
        <time>2020-09-22T11:58:38Z</time>
      </trkpt>
      <trkpt lat="46.53318" lon="4.87457">
        <ele>292</ele>
        <time>2020-09-22T11:58:47Z</time>
      </trkpt>
      <trkpt lat="46.53343" lon="4.87449">
        <ele>293</ele>
        <time>2020-09-22T11:58:53Z</time>
      </trkpt>
      <trkpt lat="46.53427" lon="4.87431">
        <ele>296</ele>
        <time>2020-09-22T11:59:13Z</time>
      </trkpt>
      <trkpt lat="46.53506" lon="4.87418">
        <ele>299</ele>
        <time>2020-09-22T11:59:31Z</time>
      </trkpt>
      <trkpt lat="46.53528" lon="4.87405">
        <ele>299</ele>
        <time>2020-09-22T11:59:37Z</time>
      </trkpt>
      <trkpt lat="46.53594" lon="4.87382">
        <ele>300</ele>
        <time>2020-09-22T11:59:53Z</time>
      </trkpt>
      <trkpt lat="46.53653" lon="4.87378">
        <ele>302</ele>
        <time>2020-09-22T12:00:06Z</time>
      </trkpt>
      <trkpt lat="46.53687" lon="4.87373">
        <ele>303</ele>
        <time>2020-09-22T12:00:14Z</time>
      </trkpt>
      <trkpt lat="46.53775" lon="4.87354">
        <ele>306</ele>
        <time>2020-09-22T12:00:35Z</time>
      </trkpt>
      <trkpt lat="46.538" lon="4.87351">
        <ele>308</ele>
        <time>2020-09-22T12:00:41Z</time>
      </trkpt>
      <trkpt lat="46.5387" lon="4.87366">
        <ele>314</ele>
        <time>2020-09-22T12:00:57Z</time>
      </trkpt>
      <trkpt lat="46.53882" lon="4.87364">
        <ele>314</ele>
        <time>2020-09-22T12:01:00Z</time>
      </trkpt>
      <trkpt lat="46.5391" lon="4.87349">
        <ele>313</ele>
        <time>2020-09-22T12:01:07Z</time>
      </trkpt>
      <trkpt lat="46.53927" lon="4.87346">
        <ele>313</ele>
        <time>2020-09-22T12:01:11Z</time>
      </trkpt>
      <trkpt lat="46.54008" lon="4.87355">
        <ele>315</ele>
        <time>2020-09-22T12:01:30Z</time>
      </trkpt>
      <trkpt lat="46.54042" lon="4.87364">
        <ele>315</ele>
        <time>2020-09-22T12:01:38Z</time>
      </trkpt>
      <trkpt lat="46.54069" lon="4.87368">
        <ele>315</ele>
        <time>2020-09-22T12:01:45Z</time>
      </trkpt>
      <trkpt lat="46.54099" lon="4.87379">
        <ele>315</ele>
        <time>2020-09-22T12:01:52Z</time>
      </trkpt>
      <trkpt lat="46.54144" lon="4.87404">
        <ele>315</ele>
        <time>2020-09-22T12:02:03Z</time>
      </trkpt>
      <trkpt lat="46.54149" lon="4.87403">
        <ele>315</ele>
        <time>2020-09-22T12:02:04Z</time>
      </trkpt>
      <trkpt lat="46.54152" lon="4.87399">
        <ele>314</ele>
        <time>2020-09-22T12:02:05Z</time>
      </trkpt>
      <trkpt lat="46.54159" lon="4.87365">
        <ele>312</ele>
        <time>2020-09-22T12:02:11Z</time>
      </trkpt>
      <trkpt lat="46.54177" lon="4.87323">
        <ele>309</ele>
        <time>2020-09-22T12:02:19Z</time>
      </trkpt>
      <trkpt lat="46.54194" lon="4.87254">
        <ele>309</ele>
        <time>2020-09-22T12:02:31Z</time>
      </trkpt>
      <trkpt lat="46.54235" lon="4.8727">
        <ele>311</ele>
        <time>2020-09-22T12:02:41Z</time>
      </trkpt>
      <trkpt lat="46.54253" lon="4.87274">
        <ele>311</ele>
        <time>2020-09-22T12:02:45Z</time>
      </trkpt>
      <trkpt lat="46.54309" lon="4.8727">
        <ele>314</ele>
        <time>2020-09-22T12:02:58Z</time>
      </trkpt>
      <trkpt lat="46.54317" lon="4.87291">
        <ele>312</ele>
        <time>2020-09-22T12:03:02Z</time>
      </trkpt>
      <trkpt lat="46.5432" lon="4.87308">
        <ele>311</ele>
        <time>2020-09-22T12:03:05Z</time>
      </trkpt>
      <trkpt lat="46.54319" lon="4.87325">
        <ele>309</ele>
        <time>2020-09-22T12:03:07Z</time>
      </trkpt>
      <trkpt lat="46.54299" lon="4.87383">
        <ele>306</ele>
        <time>2020-09-22T12:03:18Z</time>
      </trkpt>
      <trkpt lat="46.54294" lon="4.87408">
        <ele>305</ele>
        <time>2020-09-22T12:03:22Z</time>
      </trkpt>
      <trkpt lat="46.54292" lon="4.87441">
        <ele>305</ele>
        <time>2020-09-22T12:03:27Z</time>
      </trkpt>
      <trkpt lat="46.5432" lon="4.87516">
        <ele>305</ele>
        <time>2020-09-22T12:03:41Z</time>
      </trkpt>
      <trkpt lat="46.54331" lon="4.87539">
        <ele>306</ele>
        <time>2020-09-22T12:03:45Z</time>
      </trkpt>
      <trkpt lat="46.54337" lon="4.87559">
        <ele>306</ele>
        <time>2020-09-22T12:03:49Z</time>
      </trkpt>
      <trkpt lat="46.54366" lon="4.87613">
        <ele>306</ele>
        <time>2020-09-22T12:04:00Z</time>
      </trkpt>
      <trkpt lat="46.5441" lon="4.87674">
        <ele>305</ele>
        <time>2020-09-22T12:04:14Z</time>
      </trkpt>
      <trkpt lat="46.54438" lon="4.87706">
        <ele>306</ele>
        <time>2020-09-22T12:04:22Z</time>
      </trkpt>
      <trkpt lat="46.54477" lon="4.87744">
        <ele>308</ele>
        <time>2020-09-22T12:04:33Z</time>
      </trkpt>
      <trkpt lat="46.54598" lon="4.87846">
        <ele>310</ele>
        <time>2020-09-22T12:05:06Z</time>
      </trkpt>
      <trkpt lat="46.54631" lon="4.87876">
        <ele>312</ele>
        <time>2020-09-22T12:05:15Z</time>
      </trkpt>
      <trkpt lat="46.54648" lon="4.87895">
        <ele>314</ele>
        <time>2020-09-22T12:05:20Z</time>
      </trkpt>
      <trkpt lat="46.54669" lon="4.87912">
        <ele>314</ele>
        <time>2020-09-22T12:05:26Z</time>
      </trkpt>
      <trkpt lat="46.54728" lon="4.87948">
        <ele>314</ele>
        <time>2020-09-22T12:05:41Z</time>
      </trkpt>
      <trkpt lat="46.54795" lon="4.87977">
        <ele>313</ele>
        <time>2020-09-22T12:05:57Z</time>
      </trkpt>
      <trkpt lat="46.54788" lon="4.87983">
        <ele>315</ele>
        <time>2020-09-22T12:05:59Z</time>
      </trkpt>
      <trkpt lat="46.54752" lon="4.87999">
        <ele>320</ele>
        <time>2020-09-22T12:06:08Z</time>
      </trkpt>
      <trkpt lat="46.54731" lon="4.88001">
        <ele>321</ele>
        <time>2020-09-22T12:06:13Z</time>
      </trkpt>
      <trkpt lat="46.54668" lon="4.87975">
        <ele>322</ele>
        <time>2020-09-22T12:06:28Z</time>
      </trkpt>
      <trkpt lat="46.54638" lon="4.87958">
        <ele>322</ele>
        <time>2020-09-22T12:06:36Z</time>
      </trkpt>
      <trkpt lat="46.54616" lon="4.87951">
        <ele>323</ele>
        <time>2020-09-22T12:06:41Z</time>
      </trkpt>
      <trkpt lat="46.54567" lon="4.87929">
        <ele>324</ele>
        <time>2020-09-22T12:06:53Z</time>
      </trkpt>
      <trkpt lat="46.54518" lon="4.87904">
        <ele>325</ele>
        <time>2020-09-22T12:07:05Z</time>
      </trkpt>
      <trkpt lat="46.54511" lon="4.87952">
        <ele>328</ele>
        <time>2020-09-22T12:07:13Z</time>
      </trkpt>
      <trkpt lat="46.54516" lon="4.87975">
        <ele>328</ele>
        <time>2020-09-22T12:07:17Z</time>
      </trkpt>
      <trkpt lat="46.54511" lon="4.87983">
        <ele>329</ele>
        <time>2020-09-22T12:07:18Z</time>
      </trkpt>
      <trkpt lat="46.54495" lon="4.88035">
        <ele>325</ele>
        <time>2020-09-22T12:07:28Z</time>
      </trkpt>
      <trkpt lat="46.545" lon="4.8805">
        <ele>324</ele>
        <time>2020-09-22T12:07:30Z</time>
      </trkpt>
      <trkpt lat="46.54513" lon="4.88077">
        <ele>322</ele>
        <time>2020-09-22T12:07:35Z</time>
      </trkpt>
      <trkpt lat="46.54571" lon="4.88115">
        <ele>320</ele>
        <time>2020-09-22T12:07:50Z</time>
      </trkpt>
      <trkpt lat="46.54623" lon="4.88162">
        <ele>316</ele>
        <time>2020-09-22T12:08:05Z</time>
      </trkpt>
      <trkpt lat="46.54617" lon="4.88179">
        <ele>314</ele>
        <time>2020-09-22T12:08:08Z</time>
      </trkpt>
      <trkpt lat="46.54613" lon="4.88222">
        <ele>310</ele>
        <time>2020-09-22T12:08:15Z</time>
      </trkpt>
      <trkpt lat="46.5461" lon="4.88233">
        <ele>309</ele>
        <time>2020-09-22T12:08:17Z</time>
      </trkpt>
      <trkpt lat="46.5459" lon="4.88276">
        <ele>303</ele>
        <time>2020-09-22T12:08:25Z</time>
      </trkpt>
      <trkpt lat="46.54583" lon="4.88308">
        <ele>298</ele>
        <time>2020-09-22T12:08:30Z</time>
      </trkpt>
      <trkpt lat="46.54576" lon="4.88381">
        <ele>291</ele>
        <time>2020-09-22T12:08:42Z</time>
      </trkpt>
      <trkpt lat="46.54562" lon="4.88417">
        <ele>288</ele>
        <time>2020-09-22T12:08:49Z</time>
      </trkpt>
      <trkpt lat="46.54564" lon="4.88457">
        <ele>285</ele>
        <time>2020-09-22T12:08:55Z</time>
      </trkpt>
      <trkpt lat="46.54542" lon="4.88561">
        <ele>274</ele>
        <time>2020-09-22T12:09:13Z</time>
      </trkpt>
      <trkpt lat="46.54537" lon="4.88625">
        <ele>269</ele>
        <time>2020-09-22T12:09:23Z</time>
      </trkpt>
      <trkpt lat="46.5453" lon="4.8865">
        <ele>267</ele>
        <time>2020-09-22T12:09:27Z</time>
      </trkpt>
      <trkpt lat="46.54519" lon="4.88676">
        <ele>264</ele>
        <time>2020-09-22T12:09:32Z</time>
      </trkpt>
      <trkpt lat="46.54516" lon="4.88694">
        <ele>263</ele>
        <time>2020-09-22T12:09:35Z</time>
      </trkpt>
      <trkpt lat="46.54518" lon="4.88755">
        <ele>260</ele>
        <time>2020-09-22T12:09:45Z</time>
      </trkpt>
      <trkpt lat="46.54508" lon="4.88805">
        <ele>256</ele>
        <time>2020-09-22T12:09:53Z</time>
      </trkpt>
      <trkpt lat="46.54506" lon="4.88881">
        <ele>251</ele>
        <time>2020-09-22T12:10:06Z</time>
      </trkpt>
      <trkpt lat="46.54511" lon="4.88898">
        <ele>250</ele>
        <time>2020-09-22T12:10:09Z</time>
      </trkpt>
      <trkpt lat="46.54525" lon="4.88918">
        <ele>248</ele>
        <time>2020-09-22T12:10:13Z</time>
      </trkpt>
      <trkpt lat="46.54553" lon="4.88949">
        <ele>247</ele>
        <time>2020-09-22T12:10:21Z</time>
      </trkpt>
      <trkpt lat="46.54543" lon="4.89033">
        <ele>240</ele>
        <time>2020-09-22T12:10:35Z</time>
      </trkpt>
      <trkpt lat="46.54535" lon="4.89078">
        <ele>236</ele>
        <time>2020-09-22T12:10:43Z</time>
      </trkpt>
      <trkpt lat="46.54551" lon="4.89099">
        <ele>235</ele>
        <time>2020-09-22T12:10:48Z</time>
      </trkpt>
      <trkpt lat="46.54598" lon="4.89127">
        <ele>234</ele>
        <time>2020-09-22T12:10:59Z</time>
      </trkpt>
      <trkpt lat="46.54673" lon="4.89182">
        <ele>230</ele>
        <time>2020-09-22T12:11:19Z</time>
      </trkpt>
      <trkpt lat="46.54693" lon="4.89203">
        <ele>229</ele>
        <time>2020-09-22T12:11:25Z</time>
      </trkpt>
      <trkpt lat="46.54711" lon="4.89231">
        <ele>228</ele>
        <time>2020-09-22T12:11:31Z</time>
      </trkpt>
      <trkpt lat="46.5477" lon="4.89356">
        <ele>222</ele>
        <time>2020-09-22T12:11:55Z</time>
      </trkpt>
      <trkpt lat="46.54797" lon="4.89421">
        <ele>220</ele>
        <time>2020-09-22T12:12:08Z</time>
      </trkpt>
      <trkpt lat="46.54803" lon="4.89442">
        <ele>220</ele>
        <time>2020-09-22T12:12:11Z</time>
      </trkpt>
      <trkpt lat="46.54805" lon="4.89453">
        <ele>220</ele>
        <time>2020-09-22T12:12:13Z</time>
      </trkpt>
      <trkpt lat="46.548" lon="4.89485">
        <ele>219</ele>
        <time>2020-09-22T12:12:18Z</time>
      </trkpt>
      <trkpt lat="46.5479" lon="4.89521">
        <ele>219</ele>
        <time>2020-09-22T12:12:25Z</time>
      </trkpt>
      <trkpt lat="46.54896" lon="4.89594">
        <ele>217</ele>
        <time>2020-09-22T12:12:52Z</time>
      </trkpt>
      <trkpt lat="46.54978" lon="4.89669">
        <ele>216</ele>
        <time>2020-09-22T12:13:15Z</time>
      </trkpt>
      <trkpt lat="46.55042" lon="4.89707">
        <ele>214</ele>
        <time>2020-09-22T12:13:31Z</time>
      </trkpt>
      <trkpt lat="46.55137" lon="4.89769">
        <ele>209</ele>
        <time>2020-09-22T12:13:55Z</time>
      </trkpt>
      <trkpt lat="46.55155" lon="4.89783">
        <ele>208</ele>
        <time>2020-09-22T12:14:00Z</time>
      </trkpt>
      <trkpt lat="46.55262" lon="4.89913">
        <ele>204</ele>
        <time>2020-09-22T12:14:32Z</time>
      </trkpt>
      <trkpt lat="46.55341" lon="4.90049">
        <ele>203</ele>
        <time>2020-09-22T12:15:01Z</time>
      </trkpt>
      <trkpt lat="46.5539" lon="4.90159">
        <ele>200</ele>
        <time>2020-09-22T12:15:22Z</time>
      </trkpt>
      <trkpt lat="46.5539" lon="4.90168">
        <ele>199</ele>
        <time>2020-09-22T12:15:23Z</time>
      </trkpt>
      <trkpt lat="46.55509" lon="4.90232">
        <ele>197</ele>
        <time>2020-09-22T12:15:53Z</time>
      </trkpt>
      <trkpt lat="46.55535" lon="4.90243">
        <ele>196</ele>
        <time>2020-09-22T12:15:59Z</time>
      </trkpt>
      <trkpt lat="46.55574" lon="4.90255">
        <ele>194</ele>
        <time>2020-09-22T12:16:09Z</time>
      </trkpt>
      <trkpt lat="46.55581" lon="4.9027">
        <ele>194</ele>
        <time>2020-09-22T12:16:12Z</time>
      </trkpt>
      <trkpt lat="46.55579" lon="4.90297">
        <ele>193</ele>
        <time>2020-09-22T12:16:16Z</time>
      </trkpt>
      <trkpt lat="46.55575" lon="4.90311">
        <ele>193</ele>
        <time>2020-09-22T12:16:18Z</time>
      </trkpt>
      <trkpt lat="46.55418" lon="4.90528">
        <ele>189</ele>
        <time>2020-09-22T12:17:09Z</time>
      </trkpt>
      <trkpt lat="46.55388" lon="4.90573">
        <ele>190</ele>
        <time>2020-09-22T12:17:19Z</time>
      </trkpt>
      <trkpt lat="46.55368" lon="4.90608">
        <ele>189</ele>
        <time>2020-09-22T12:17:26Z</time>
      </trkpt>
      <trkpt lat="46.55332" lon="4.90693">
        <ele>188</ele>
        <time>2020-09-22T12:17:42Z</time>
      </trkpt>
      <trkpt lat="46.55255" lon="4.9093">
        <ele>192</ele>
        <time>2020-09-22T12:18:24Z</time>
      </trkpt>
      <trkpt lat="46.55241" lon="4.90982">
        <ele>191</ele>
        <time>2020-09-22T12:18:33Z</time>
      </trkpt>
      <trkpt lat="46.55234" lon="4.91014">
        <ele>191</ele>
        <time>2020-09-22T12:18:39Z</time>
      </trkpt>
      <trkpt lat="46.55223" lon="4.91163">
        <ele>190</ele>
        <time>2020-09-22T12:19:03Z</time>
      </trkpt>
      <trkpt lat="46.55224" lon="4.91185">
        <ele>189</ele>
        <time>2020-09-22T12:19:06Z</time>
      </trkpt>
      <trkpt lat="46.55232" lon="4.91207">
        <ele>188</ele>
        <time>2020-09-22T12:19:10Z</time>
      </trkpt>
      <trkpt lat="46.55233" lon="4.91237">
        <ele>188</ele>
        <time>2020-09-22T12:19:15Z</time>
      </trkpt>
      <trkpt lat="46.55217" lon="4.91334">
        <ele>184</ele>
        <time>2020-09-22T12:19:31Z</time>
      </trkpt>
      <trkpt lat="46.55196" lon="4.91428">
        <ele>185</ele>
        <time>2020-09-22T12:19:47Z</time>
      </trkpt>
      <trkpt lat="46.55192" lon="4.91473">
        <ele>185</ele>
        <time>2020-09-22T12:19:54Z</time>
      </trkpt>
      <trkpt lat="46.55195" lon="4.91492">
        <ele>185</ele>
        <time>2020-09-22T12:19:58Z</time>
      </trkpt>
      <trkpt lat="46.552" lon="4.915">
        <ele>185</ele>
        <time>2020-09-22T12:19:59Z</time>
      </trkpt>
      <trkpt lat="46.55225" lon="4.9152">
        <ele>183</ele>
        <time>2020-09-22T12:20:06Z</time>
      </trkpt>
      <trkpt lat="46.55252" lon="4.91549">
        <ele>182</ele>
        <time>2020-09-22T12:20:14Z</time>
      </trkpt>
      <trkpt lat="46.55254" lon="4.91557">
        <ele>182</ele>
        <time>2020-09-22T12:20:15Z</time>
      </trkpt>
      <trkpt lat="46.55253" lon="4.91574">
        <ele>183</ele>
        <time>2020-09-22T12:20:18Z</time>
      </trkpt>
      <trkpt lat="46.55244" lon="4.91597">
        <ele>183</ele>
        <time>2020-09-22T12:20:22Z</time>
      </trkpt>
      <trkpt lat="46.55256" lon="4.91608">
        <ele>182</ele>
        <time>2020-09-22T12:20:26Z</time>
      </trkpt>
      <trkpt lat="46.5527" lon="4.91618">
        <ele>181</ele>
        <time>2020-09-22T12:20:29Z</time>
      </trkpt>
      <trkpt lat="46.55295" lon="4.91629">
        <ele>179</ele>
        <time>2020-09-22T12:20:35Z</time>
      </trkpt>
      <trkpt lat="46.55318" lon="4.91634">
        <ele>178</ele>
        <time>2020-09-22T12:20:41Z</time>
      </trkpt>
      <trkpt lat="46.55355" lon="4.91627">
        <ele>176</ele>
        <time>2020-09-22T12:20:49Z</time>
      </trkpt>
      <trkpt lat="46.55377" lon="4.91619">
        <ele>176</ele>
        <time>2020-09-22T12:20:55Z</time>
      </trkpt>
      <trkpt lat="46.55384" lon="4.91619">
        <ele>176</ele>
        <time>2020-09-22T12:20:56Z</time>
      </trkpt>
      <trkpt lat="46.55391" lon="4.91625">
        <ele>176</ele>
        <time>2020-09-22T12:20:58Z</time>
      </trkpt>
      <trkpt lat="46.55411" lon="4.91613">
        <ele>175</ele>
        <time>2020-09-22T12:21:03Z</time>
      </trkpt>
      <trkpt lat="46.5543" lon="4.91605">
        <ele>175</ele>
        <time>2020-09-22T12:21:08Z</time>
      </trkpt>
      <trkpt lat="46.55464" lon="4.91593">
        <ele>174</ele>
        <time>2020-09-22T12:21:16Z</time>
      </trkpt>
      <trkpt lat="46.55489" lon="4.91587">
        <ele>174</ele>
        <time>2020-09-22T12:21:22Z</time>
      </trkpt>
      <trkpt lat="46.55523" lon="4.91585">
        <ele>175</ele>
        <time>2020-09-22T12:21:30Z</time>
      </trkpt>
      <trkpt lat="46.55537" lon="4.91591">
        <ele>175</ele>
        <time>2020-09-22T12:21:33Z</time>
      </trkpt>
      <trkpt lat="46.5559" lon="4.91761">
        <ele>174</ele>
        <time>2020-09-22T12:22:03Z</time>
      </trkpt>
      <trkpt lat="46.55673" lon="4.91741">
        <ele>174</ele>
        <time>2020-09-22T12:22:23Z</time>
      </trkpt>
      <trkpt lat="46.55731" lon="4.91718">
        <ele>171</ele>
        <time>2020-09-22T12:22:37Z</time>
      </trkpt>
      <trkpt lat="46.55925" lon="4.91602">
        <ele>175</ele>
        <time>2020-09-22T12:23:26Z</time>
      </trkpt>
      <trkpt lat="46.56021" lon="4.91533">
        <ele>174</ele>
        <time>2020-09-22T12:23:51Z</time>
      </trkpt>
      <trkpt lat="46.56023" lon="4.91539">
        <ele>174</ele>
        <time>2020-09-22T12:23:52Z</time>
      </trkpt>
      <trkpt lat="46.56021" lon="4.91533">
        <ele>174</ele>
        <time>2020-09-22T12:23:53Z</time>
      </trkpt>
      <trkpt lat="46.56024" lon="4.91529">
        <ele>174</ele>
        <time>2020-09-22T12:23:54Z</time>
      </trkpt>
      <trkpt lat="46.56164" lon="4.91384">
        <ele>178</ele>
        <time>2020-09-22T12:24:34Z</time>
      </trkpt>
      <trkpt lat="46.56299" lon="4.91273">
        <ele>179</ele>
        <time>2020-09-22T12:25:10Z</time>
      </trkpt>
      <trkpt lat="46.56332" lon="4.91249">
        <ele>179</ele>
        <time>2020-09-22T12:25:19Z</time>
      </trkpt>
      <trkpt lat="46.56389" lon="4.91216">
        <ele>178</ele>
        <time>2020-09-22T12:25:33Z</time>
      </trkpt>
      <trkpt lat="46.5644" lon="4.91191">
        <ele>178</ele>
        <time>2020-09-22T12:25:46Z</time>
      </trkpt>
      <trkpt lat="46.56469" lon="4.91181">
        <ele>178</ele>
        <time>2020-09-22T12:25:53Z</time>
      </trkpt>
      <trkpt lat="46.56544" lon="4.91139">
        <ele>177</ele>
        <time>2020-09-22T12:26:12Z</time>
      </trkpt>
      <trkpt lat="46.56576" lon="4.91125">
        <ele>176</ele>
        <time>2020-09-22T12:26:19Z</time>
      </trkpt>
      <trkpt lat="46.56625" lon="4.91111">
        <ele>176</ele>
        <time>2020-09-22T12:26:31Z</time>
      </trkpt>
      <trkpt lat="46.5664" lon="4.9111">
        <ele>175</ele>
        <time>2020-09-22T12:26:35Z</time>
      </trkpt>
      <trkpt lat="46.56655" lon="4.91105">
        <ele>175</ele>
        <time>2020-09-22T12:26:38Z</time>
      </trkpt>
      <trkpt lat="46.56687" lon="4.91087">
        <ele>175</ele>
        <time>2020-09-22T12:26:46Z</time>
      </trkpt>
      <trkpt lat="46.56693" lon="4.91104">
        <ele>174</ele>
        <time>2020-09-22T12:26:49Z</time>
      </trkpt>
      <trkpt lat="46.56698" lon="4.91107">
        <ele>173</ele>
        <time>2020-09-22T12:26:51Z</time>
      </trkpt>
      <trkpt lat="46.56791" lon="4.91122">
        <ele>173</ele>
        <time>2020-09-22T12:27:12Z</time>
      </trkpt>
      <trkpt lat="46.57057" lon="4.91205">
        <ele>173</ele>
        <time>2020-09-22T12:28:16Z</time>
      </trkpt>
    </trkseg>
  </trk>
</gpx>